Time,TemperatureF,DewpointF,PressureIn,WindDirection,WindDirectionDegrees,WindSpeedMPH,WindSpeedGustMPH,Humidity,HourlyPrecipIn,Conditions,Clouds,dailyrainin,SoftwareType,DateUTC
2013-05-06 00:01:00,50.0,46.6,26.81,East,87,0.0,0.0,88,0.00,,---,0.00,VWS V14.01,2013-05-06 05:01:00,
2013-05-06 00:02:00,50.0,46.6,26.81,East,87,0.0,0.0,88,0.00,,---,0.00,VWS V14.01,2013-05-06 05:02:00,
2013-05-06 00:03:00,50.0,46.6,26.81,East,87,0.0,0.0,88,0.00,,---,0.00,VWS V14.01,2013-05-06 05:03:00,
2013-05-06 00:07:00,49.8,46.4,26.81,East,87,0.0,0.0,88,0.00,,---,0.00,VWS V14.01,2013-05-06 05:07:00,
2013-05-06 00:08:00,49.8,46.4,26.81,East,87,0.0,0.0,88,0.00,,---,0.00,VWS V14.01,2013-05-06 05:08:00,
2013-05-06 00:12:00,49.8,46.4,26.78,East,87,0.0,0.0,88,0.00,,---,0.00,VWS V14.01,2013-05-06 05:12:00,
2013-05-06 00:13:00,49.8,46.4,26.78,East,87,0.0,0.0,88,0.00,,---,0.00,VWS V14.01,2013-05-06 05:13:00,
2013-05-06 00:14:00,49.8,46.4,26.78,East,87,0.0,0.0,88,0.00,,---,0.00,VWS V14.01,2013-05-06 05:14:00,
2013-05-06 00:17:00,49.8,46.4,26.78,East,87,0.0,0.0,88,0.00,,---,0.00,VWS V14.01,2013-05-06 05:17:00,
2013-05-06 00:18:00,49.8,46.4,26.78,East,87,0.0,0.0,88,0.00,,---,0.00,VWS V14.01,2013-05-06 05:18:00,
2013-05-06 00:19:00,49.8,46.4,26.78,East,87,0.0,0.0,88,0.00,,---,0.00,VWS V14.01,2013-05-06 05:19:00,
2013-05-06 00:22:00,49.6,46.2,26.78,SSE,164,0.0,0.0,88,0.00,,---,0.00,VWS V14.01,2013-05-06 05:22:00,
2013-05-06 00:23:00,49.6,46.2,26.78,SSE,164,0.0,0.0,88,0.00,,---,0.00,VWS V14.01,2013-05-06 05:23:00,
2013-05-06 00:24:00,49.6,46.2,26.78,SSE,164,0.0,0.0,88,0.00,,---,0.00,VWS V14.01,2013-05-06 05:24:00,
2013-05-06 00:28:00,49.6,46.2,26.78,SSE,164,0.0,0.0,88,0.00,,---,0.00,VWS V14.01,2013-05-06 05:28:00,
2013-05-06 00:29:00,49.5,46.1,26.78,SSE,164,0.0,0.0,88,0.00,,---,0.00,VWS V14.01,2013-05-06 05:29:00,
2013-05-06 00:33:00,49.5,46.1,26.78,SSE,164,0.0,0.0,88,0.00,,---,0.00,VWS V14.01,2013-05-06 05:33:00,
2013-05-06 00:34:00,49.5,46.1,26.78,SSE,164,0.0,0.0,88,0.00,,---,0.00,VWS V14.01,2013-05-06 05:34:00,
2013-05-06 00:35:00,49.5,46.1,26.78,SSE,164,0.0,0.0,88,0.00,,---,0.00,VWS V14.01,2013-05-06 05:35:00,
2013-05-06 00:38:00,49.5,46.1,26.78,SSE,164,0.0,0.0,88,0.00,,---,0.00,VWS V14.01,2013-05-06 05:38:00,
2013-05-06 00:39:00,49.5,46.1,26.78,SSE,164,0.0,0.0,88,0.00,,---,0.00,VWS V14.01,2013-05-06 05:39:00,
2013-05-06 00:40:00,49.5,46.1,26.78,SSE,164,0.0,0.0,88,0.00,,---,0.00,VWS V14.01,2013-05-06 05:40:00,
2013-05-06 00:43:00,49.3,45.9,26.81,SSE,164,0.0,0.0,88,0.00,,---,0.00,VWS V14.01,2013-05-06 05:43:00,
2013-05-06 00:44:00,49.3,45.9,26.81,SSE,164,0.0,0.0,88,0.00,,---,0.00,VWS V14.01,2013-05-06 05:44:00,
2013-05-06 00:45:00,49.3,45.9,26.81,SSE,164,0.0,0.0,88,0.00,,---,0.00,VWS V14.01,2013-05-06 05:45:00,
2013-05-06 00:48:00,49.3,45.9,26.81,SSE,164,0.0,0.0,88,0.00,,---,0.00,VWS V14.01,2013-05-06 05:48:00,
2013-05-06 00:49:00,49.3,45.9,26.81,SSE,164,0.0,0.0,88,0.00,,---,0.00,VWS V14.01,2013-05-06 05:49:00,
2013-05-06 00:50:00,49.3,45.9,26.81,SSE,164,0.0,0.0,88,0.00,,---,0.00,VWS V14.01,2013-05-06 05:50:00,
2013-05-06 00:54:00,49.1,45.7,26.81,SSE,164,0.0,0.0,88,0.00,,---,0.00,VWS V14.01,2013-05-06 05:54:00,
2013-05-06 00:55:00,49.1,45.7,26.78,SSE,164,0.0,0.0,88,0.00,,---,0.00,VWS V14.01,2013-05-06 05:55:00,
2013-05-06 00:59:00,49.1,46.0,26.78,SSE,164,0.0,0.0,89,0.00,,---,0.00,VWS V14.01,2013-05-06 05:59:00,
2013-05-06 01:00:00,49.1,46.0,26.78,SSE,164,0.0,0.0,89,0.00,,---,0.00,VWS V14.01,2013-05-06 06:00:00,
2013-05-06 01:04:00,49.1,46.0,26.78,SSE,164,0.0,0.0,89,0.00,,---,0.00,VWS V14.01,2013-05-06 06:04:00,
2013-05-06 01:05:00,49.1,46.0,26.78,SSE,164,0.0,0.0,89,0.00,,---,0.00,VWS V14.01,2013-05-06 06:05:00,
2013-05-06 01:09:00,49.1,46.0,26.78,SSE,164,0.0,0.0,89,0.00,,---,0.00,VWS V14.01,2013-05-06 06:09:00,
2013-05-06 01:10:00,49.1,46.0,26.72,SSE,164,0.0,0.0,89,0.00,,---,0.00,VWS V14.01,2013-05-06 06:10:00,
2013-05-06 01:14:00,49.1,46.0,26.72,SSE,164,0.0,0.0,89,0.00,,---,0.00,VWS V14.01,2013-05-06 06:14:00,
2013-05-06 01:15:00,49.1,46.0,26.72,SSE,164,0.0,0.0,89,0.00,,---,0.00,VWS V14.01,2013-05-06 06:15:00,
2013-05-06 01:16:00,49.1,46.0,26.72,SSE,164,0.0,0.0,89,0.00,,---,0.00,VWS V14.01,2013-05-06 06:16:00,
2013-05-06 01:19:00,48.9,45.8,26.72,SE,141,0.0,0.0,89,0.00,,---,0.00,VWS V14.01,2013-05-06 06:19:00,
2013-05-06 01:20:00,48.9,45.8,26.72,SE,139,0.0,0.0,89,0.00,,---,0.00,VWS V14.01,2013-05-06 06:20:00,
2013-05-06 01:21:00,48.9,45.8,26.72,SE,139,0.0,0.0,89,0.00,,---,0.00,VWS V14.01,2013-05-06 06:21:00,
2013-05-06 01:24:00,48.9,45.8,26.72,SE,139,0.0,0.0,89,0.00,,---,0.00,VWS V14.01,2013-05-06 06:24:00,
2013-05-06 01:25:00,48.9,45.8,26.72,SE,139,0.0,0.0,89,0.00,,---,0.00,VWS V14.01,2013-05-06 06:25:00,
2013-05-06 01:26:00,48.9,45.8,26.72,SE,139,0.0,0.0,89,0.00,,---,0.00,VWS V14.01,2013-05-06 06:26:00,
2013-05-06 01:29:00,48.7,45.3,26.81,SE,139,0.0,0.0,88,0.00,,---,0.00,VWS V14.01,2013-05-06 06:29:00,
2013-05-06 01:30:00,48.7,45.3,26.81,SE,139,0.0,0.0,88,0.00,,---,0.00,VWS V14.01,2013-05-06 06:30:00,
2013-05-06 01:31:00,48.7,45.3,26.81,SE,138,0.0,0.0,88,0.00,,---,0.00,VWS V14.01,2013-05-06 06:31:00,
2013-05-06 01:34:00,48.7,45.7,26.81,SE,139,0.0,0.0,89,0.00,,---,0.00,VWS V14.01,2013-05-06 06:34:00,
2013-05-06 01:35:00,48.7,45.7,26.81,SE,139,0.0,0.0,89,0.00,,---,0.00,VWS V14.01,2013-05-06 06:35:00,
2013-05-06 01:36:00,48.7,45.7,26.81,SE,139,0.0,0.0,89,0.00,,---,0.00,VWS V14.01,2013-05-06 06:36:00,
2013-05-06 01:39:00,48.7,45.7,26.81,SE,138,0.0,0.0,89,0.00,,---,0.00,VWS V14.01,2013-05-06 06:39:00,
2013-05-06 01:40:00,48.7,45.7,26.81,SE,138,0.0,0.0,89,0.00,,---,0.00,VWS V14.01,2013-05-06 06:40:00,
2013-05-06 01:41:00,48.7,45.7,26.78,SE,131,2.7,2.7,89,0.00,,---,0.00,VWS V14.01,2013-05-06 06:41:00,
2013-05-06 01:44:00,48.6,45.5,26.78,South,175,0.0,0.0,89,0.00,,---,0.00,VWS V14.01,2013-05-06 06:44:00,
2013-05-06 01:45:00,48.6,45.5,26.78,South,175,0.0,0.0,89,0.00,,---,0.00,VWS V14.01,2013-05-06 06:45:00,
2013-05-06 01:46:00,48.6,45.5,26.78,South,175,0.0,0.0,89,0.00,,---,0.00,VWS V14.01,2013-05-06 06:46:00,
2013-05-06 01:50:00,48.6,45.5,26.78,SE,131,0.0,0.0,89,0.00,,---,0.00,VWS V14.01,2013-05-06 06:50:00,
2013-05-06 01:51:00,48.6,45.5,26.78,SE,131,0.0,0.0,89,0.00,,---,0.00,VWS V14.01,2013-05-06 06:51:00,
2013-05-06 01:52:00,48.6,45.5,26.78,SE,131,0.0,0.0,89,0.00,,---,0.00,VWS V14.01,2013-05-06 06:52:00,
2013-05-06 01:55:00,48.6,45.5,26.75,SE,131,0.0,0.0,89,0.00,,---,0.00,VWS V14.01,2013-05-06 06:55:00,
2013-05-06 01:56:00,48.6,45.5,26.75,SE,131,0.0,0.0,89,0.00,,---,0.00,VWS V14.01,2013-05-06 06:56:00,
2013-05-06 01:57:00,48.6,45.5,26.75,SE,131,0.0,0.0,89,0.00,,---,0.00,VWS V14.01,2013-05-06 06:57:00,
2013-05-06 02:00:00,48.6,45.5,26.75,SE,131,0.0,0.0,89,0.00,,---,0.00,VWS V14.01,2013-05-06 07:00:00,
2013-05-06 02:01:00,48.4,45.3,26.75,SE,131,0.0,0.0,89,0.00,,---,0.00,VWS V14.01,2013-05-06 07:01:00,
2013-05-06 02:02:00,48.4,45.3,26.75,SE,134,0.0,0.0,89,0.00,,---,0.00,VWS V14.01,2013-05-06 07:02:00,
2013-05-06 02:05:00,48.4,45.3,26.75,South,177,0.0,0.0,89,0.00,,---,0.00,VWS V14.01,2013-05-06 07:05:00,
2013-05-06 02:06:00,48.4,45.3,26.75,South,177,0.0,0.0,89,0.00,,---,0.00,VWS V14.01,2013-05-06 07:06:00,
2013-05-06 02:07:00,48.4,45.3,26.75,South,177,0.0,0.0,89,0.00,,---,0.00,VWS V14.01,2013-05-06 07:07:00,
2013-05-06 02:08:00,48.4,45.3,26.75,South,177,0.0,0.0,89,0.00,,---,0.00,VWS V14.01,2013-05-06 07:08:00,
2013-05-06 02:10:00,48.4,45.3,26.75,South,177,0.0,0.0,89,0.00,,---,0.00,VWS V14.01,2013-05-06 07:10:00,
2013-05-06 02:11:00,48.4,45.3,26.78,South,177,0.0,0.0,89,0.00,,---,0.00,VWS V14.01,2013-05-06 07:11:00,
2013-05-06 02:12:00,48.4,45.3,26.78,South,177,0.0,0.0,89,0.00,,---,0.00,VWS V14.01,2013-05-06 07:12:00,
2013-05-06 02:13:00,48.4,45.3,26.78,South,177,0.0,0.0,89,0.00,,---,0.00,VWS V14.01,2013-05-06 07:13:00,
2013-05-06 02:15:00,48.4,45.3,26.78,SW,221,0.0,0.0,89,0.00,,---,0.00,VWS V14.01,2013-05-06 07:15:00,
2013-05-06 02:16:00,48.4,45.3,26.78,SW,221,0.0,0.0,89,0.00,,---,0.00,VWS V14.01,2013-05-06 07:16:00,
2013-05-06 02:17:00,48.4,45.3,26.78,SW,221,0.0,0.0,89,0.00,,---,0.00,VWS V14.01,2013-05-06 07:17:00,
2013-05-06 02:18:00,48.4,45.3,26.78,SW,221,0.0,0.0,89,0.00,,---,0.00,VWS V14.01,2013-05-06 07:18:00,
2013-05-06 02:20:00,48.4,45.3,26.78,SW,221,0.0,0.0,89,0.00,,---,0.00,VWS V14.01,2013-05-06 07:20:00,
2013-05-06 02:21:00,48.4,45.3,26.78,SW,221,0.0,0.0,89,0.00,,---,0.00,VWS V14.01,2013-05-06 07:21:00,
2013-05-06 02:22:00,48.6,45.5,26.78,SW,221,0.0,0.0,89,0.00,,---,0.00,VWS V14.01,2013-05-06 07:22:00,
2013-05-06 02:23:00,48.6,45.5,26.78,SW,221,0.0,0.0,89,0.00,,---,0.00,VWS V14.01,2013-05-06 07:23:00,
2013-05-06 02:25:00,48.6,45.5,26.81,SW,221,0.0,0.0,89,0.00,,---,0.00,VWS V14.01,2013-05-06 07:25:00,
2013-05-06 02:26:00,48.4,45.3,26.81,SW,221,0.0,0.0,89,0.00,,---,0.00,VWS V14.01,2013-05-06 07:26:00,
2013-05-06 02:27:00,48.4,45.3,26.81,SW,221,0.0,0.0,89,0.00,,---,0.00,VWS V14.01,2013-05-06 07:27:00,
2013-05-06 02:28:00,48.4,45.3,26.81,SW,221,0.0,0.0,89,0.00,,---,0.00,VWS V14.01,2013-05-06 07:28:00,
2013-05-06 02:31:00,48.4,45.3,26.81,SW,221,0.0,0.0,89,0.00,,---,0.00,VWS V14.01,2013-05-06 07:31:00,
2013-05-06 02:32:00,48.4,45.3,26.81,SW,221,0.0,0.0,89,0.00,,---,0.00,VWS V14.01,2013-05-06 07:32:00,
2013-05-06 02:33:00,48.4,45.3,26.81,SW,221,0.0,0.0,89,0.00,,---,0.00,VWS V14.01,2013-05-06 07:33:00,
2013-05-06 02:36:00,48.4,45.3,26.81,SW,221,0.0,0.0,89,0.00,,---,0.00,VWS V14.01,2013-05-06 07:36:00,
2013-05-06 02:37:00,48.2,45.1,26.81,SW,221,0.0,0.0,89,0.00,,---,0.00,VWS V14.01,2013-05-06 07:37:00,
2013-05-06 02:38:00,48.2,45.1,26.75,SW,221,0.0,0.0,89,0.00,,---,0.00,VWS V14.01,2013-05-06 07:38:00,
2013-05-06 02:41:00,48.2,45.1,26.75,SW,221,0.0,0.0,89,0.00,,---,0.00,VWS V14.01,2013-05-06 07:41:00,
2013-05-06 02:42:00,48.2,45.1,26.75,SW,221,0.0,0.0,89,0.00,,---,0.00,VWS V14.01,2013-05-06 07:42:00,
2013-05-06 02:43:00,48.2,45.1,26.75,SW,221,0.0,0.0,89,0.00,,---,0.00,VWS V14.01,2013-05-06 07:43:00,
2013-05-06 02:46:00,48.2,45.1,26.75,SW,221,0.0,0.0,89,0.00,,---,0.00,VWS V14.01,2013-05-06 07:46:00,
2013-05-06 02:47:00,48.2,45.1,26.75,SW,221,0.0,0.0,89,0.00,,---,0.00,VWS V14.01,2013-05-06 07:47:00,
2013-05-06 02:48:00,48.2,45.1,26.75,SW,221,0.0,0.0,89,0.00,,---,0.00,VWS V14.01,2013-05-06 07:48:00,
2013-05-06 02:51:00,48.0,45.2,26.75,SW,221,0.0,0.0,90,0.00,,---,0.00,VWS V14.01,2013-05-06 07:51:00,
2013-05-06 02:52:00,48.0,45.2,26.75,SW,221,0.0,0.0,90,0.00,,---,0.00,VWS V14.01,2013-05-06 07:52:00,
2013-05-06 02:53:00,48.0,45.2,26.75,SW,221,0.0,0.0,90,0.00,,---,0.00,VWS V14.01,2013-05-06 07:53:00,
2013-05-06 02:54:00,48.0,45.2,26.75,SW,221,0.0,0.0,90,0.00,,---,0.00,VWS V14.01,2013-05-06 07:54:00,
2013-05-06 02:56:00,48.0,45.2,26.75,SW,221,0.0,0.0,90,0.00,,---,0.00,VWS V14.01,2013-05-06 07:56:00,
2013-05-06 02:57:00,48.0,45.2,26.75,SW,221,0.0,0.0,90,0.00,,---,0.00,VWS V14.01,2013-05-06 07:57:00,
2013-05-06 02:58:00,48.0,45.2,26.75,SW,221,0.0,0.0,90,0.00,,---,0.00,VWS V14.01,2013-05-06 07:58:00,
2013-05-06 02:59:00,48.0,45.2,26.75,SW,221,0.0,0.0,90,0.00,,---,0.00,VWS V14.01,2013-05-06 07:59:00,
2013-05-06 03:01:00,48.0,45.2,26.75,SW,221,0.0,0.0,90,0.00,,---,0.00,VWS V14.01,2013-05-06 08:01:00,
2013-05-06 03:03:00,48.0,45.2,26.75,SW,221,0.0,0.0,90,0.00,,---,0.00,VWS V14.01,2013-05-06 08:03:00,
2013-05-06 03:04:00,48.0,45.2,26.75,SW,221,0.0,0.0,90,0.00,,---,0.00,VWS V14.01,2013-05-06 08:04:00,
2013-05-06 03:06:00,48.0,45.2,26.75,SW,221,0.0,0.0,90,0.00,,---,0.00,VWS V14.01,2013-05-06 08:06:00,
2013-05-06 03:08:00,48.0,45.2,26.75,SW,221,0.0,0.0,90,0.00,,---,0.00,VWS V14.01,2013-05-06 08:08:00,
2013-05-06 03:09:00,48.0,45.2,26.75,SW,221,0.0,0.0,90,0.00,,---,0.00,VWS V14.01,2013-05-06 08:09:00,
2013-05-06 03:11:00,48.0,45.2,26.81,SW,221,0.0,0.0,90,0.00,,---,0.00,VWS V14.01,2013-05-06 08:11:00,
2013-05-06 03:13:00,47.8,45.0,26.81,SW,221,0.0,0.0,90,0.00,,---,0.00,VWS V14.01,2013-05-06 08:13:00,
2013-05-06 03:14:00,47.8,45.0,26.81,SW,221,0.0,0.0,90,0.00,,---,0.00,VWS V14.01,2013-05-06 08:14:00,
2013-05-06 03:16:00,47.8,45.0,26.81,SW,221,0.0,0.0,90,0.00,,---,0.00,VWS V14.01,2013-05-06 08:16:00,
2013-05-06 03:18:00,47.8,45.0,26.81,SW,221,0.0,0.0,90,0.00,,---,0.00,VWS V14.01,2013-05-06 08:18:00,
2013-05-06 03:19:00,47.8,45.0,26.81,SW,221,0.0,0.0,90,0.00,,---,0.00,VWS V14.01,2013-05-06 08:19:00,
2013-05-06 03:21:00,47.8,45.0,26.81,SW,221,0.0,0.0,90,0.00,,---,0.00,VWS V14.01,2013-05-06 08:21:00,
2013-05-06 03:23:00,47.8,45.0,26.81,SW,221,0.0,0.0,90,0.00,,---,0.00,VWS V14.01,2013-05-06 08:23:00,
2013-05-06 03:24:00,47.8,45.0,26.81,SW,221,0.0,0.0,90,0.00,,---,0.00,VWS V14.01,2013-05-06 08:24:00,
2013-05-06 03:26:00,47.7,44.9,26.81,SW,221,0.0,0.0,90,0.00,,---,0.00,VWS V14.01,2013-05-06 08:26:00,
2013-05-06 03:28:00,47.8,45.0,26.81,SW,221,0.0,0.0,90,0.00,,---,0.00,VWS V14.01,2013-05-06 08:28:00,
2013-05-06 03:29:00,47.8,45.0,26.81,SW,221,0.0,0.0,90,0.00,,---,0.00,VWS V14.01,2013-05-06 08:29:00,
2013-05-06 03:32:00,47.8,45.0,26.81,SW,221,0.0,0.0,90,0.00,,---,0.00,VWS V14.01,2013-05-06 08:32:00,
2013-05-06 03:33:00,47.8,45.0,26.81,SW,221,0.0,0.0,90,0.00,,---,0.00,VWS V14.01,2013-05-06 08:33:00,
2013-05-06 03:34:00,47.8,45.0,26.81,SW,221,0.0,0.0,90,0.00,,---,0.00,VWS V14.01,2013-05-06 08:34:00,
2013-05-06 03:37:00,48.0,45.2,26.81,SW,221,0.0,0.0,90,0.00,,---,0.00,VWS V14.01,2013-05-06 08:37:00,
2013-05-06 03:38:00,48.0,45.2,26.81,SW,221,0.0,0.0,90,0.00,,---,0.00,VWS V14.01,2013-05-06 08:38:00,
2013-05-06 03:39:00,48.0,45.2,26.81,SW,221,0.0,0.0,90,0.00,,---,0.00,VWS V14.01,2013-05-06 08:39:00,
2013-05-06 03:42:00,48.0,45.2,26.75,SW,221,0.0,0.0,90,0.00,,---,0.00,VWS V14.01,2013-05-06 08:42:00,
2013-05-06 03:43:00,48.0,45.2,26.75,SW,221,0.0,0.0,90,0.00,,---,0.00,VWS V14.01,2013-05-06 08:43:00,
2013-05-06 03:44:00,48.0,45.2,26.75,SW,221,0.0,0.0,90,0.00,,---,0.00,VWS V14.01,2013-05-06 08:44:00,
2013-05-06 03:47:00,48.0,45.2,26.75,SW,221,0.0,0.0,90,0.00,,---,0.00,VWS V14.01,2013-05-06 08:47:00,
2013-05-06 03:48:00,48.0,45.2,26.75,SW,221,0.0,0.0,90,0.00,,---,0.00,VWS V14.01,2013-05-06 08:48:00,
2013-05-06 03:49:00,48.0,45.2,26.75,SW,221,0.0,0.0,90,0.00,,---,0.00,VWS V14.01,2013-05-06 08:49:00,
2013-05-06 03:50:00,48.0,45.2,26.75,SW,221,0.0,0.0,90,0.00,,---,0.00,VWS V14.01,2013-05-06 08:50:00,
2013-05-06 03:52:00,47.8,45.0,26.75,SW,221,0.0,0.0,90,0.00,,---,0.00,VWS V14.01,2013-05-06 08:52:00,
2013-05-06 03:53:00,47.8,45.0,26.72,SW,221,0.0,0.0,90,0.00,,---,0.00,VWS V14.01,2013-05-06 08:53:00,
2013-05-06 03:54:00,47.8,45.0,26.72,SW,221,0.0,0.0,90,0.00,,---,0.00,VWS V14.01,2013-05-06 08:54:00,
2013-05-06 03:55:00,47.8,45.0,26.72,SW,221,0.0,0.0,90,0.00,,---,0.00,VWS V14.01,2013-05-06 08:55:00,
2013-05-06 03:57:00,47.7,44.9,26.72,SW,221,0.0,0.0,90,0.00,,---,0.00,VWS V14.01,2013-05-06 08:57:00,
2013-05-06 03:59:00,47.7,44.9,26.72,SW,221,0.0,0.0,90,0.00,,---,0.00,VWS V14.01,2013-05-06 08:59:00,
2013-05-06 04:00:00,47.7,44.9,26.72,SW,221,0.0,0.0,90,0.00,,---,0.00,VWS V14.01,2013-05-06 09:00:00,
2013-05-06 04:02:00,47.7,44.9,26.72,SW,221,0.0,0.0,90,0.00,,---,0.00,VWS V14.01,2013-05-06 09:02:00,
2013-05-06 04:04:00,47.7,44.9,26.72,SW,221,0.0,0.0,90,0.00,,---,0.00,VWS V14.01,2013-05-06 09:04:00,
2013-05-06 04:05:00,47.3,44.5,26.72,SW,221,0.0,0.0,90,0.00,,---,0.00,VWS V14.01,2013-05-06 09:05:00,
2013-05-06 04:07:00,47.3,44.5,26.72,ESE,118,0.0,0.0,90,0.00,,---,0.00,VWS V14.01,2013-05-06 09:07:00,
2013-05-06 04:09:00,47.3,44.5,26.72,SE,135,0.0,0.0,90,0.00,,---,0.00,VWS V14.01,2013-05-06 09:09:00,
2013-05-06 04:10:00,47.1,44.0,26.78,SE,135,0.0,0.0,89,0.00,,---,0.00,VWS V14.01,2013-05-06 09:10:00,
2013-05-06 04:12:00,47.1,44.0,26.78,SE,135,0.0,0.0,89,0.00,,---,0.00,VWS V14.01,2013-05-06 09:12:00,
2013-05-06 04:14:00,47.1,44.0,26.78,South,176,0.0,0.0,89,0.00,,---,0.00,VWS V14.01,2013-05-06 09:14:00,
2013-05-06 04:15:00,47.1,44.0,26.78,South,176,0.0,0.0,89,0.00,,---,0.00,VWS V14.01,2013-05-06 09:15:00,
2013-05-06 04:18:00,47.1,44.0,26.78,South,176,0.0,0.0,89,0.00,,---,0.00,VWS V14.01,2013-05-06 09:18:00,
2013-05-06 04:19:00,46.9,43.9,26.78,South,176,0.0,0.0,89,0.00,,---,0.00,VWS V14.01,2013-05-06 09:19:00,
2013-05-06 04:20:00,46.9,43.9,26.78,South,176,0.0,0.0,89,0.00,,---,0.00,VWS V14.01,2013-05-06 09:20:00,
2013-05-06 04:21:00,46.9,44.2,26.78,South,176,0.0,0.0,90,0.00,,---,0.00,VWS V14.01,2013-05-06 09:21:00,
2013-05-06 04:23:00,46.9,44.2,26.78,South,176,0.0,0.0,90,0.00,,---,0.00,VWS V14.01,2013-05-06 09:23:00,
2013-05-06 04:24:00,46.9,44.2,26.78,South,176,0.0,0.0,90,0.00,,---,0.00,VWS V14.01,2013-05-06 09:24:00,
2013-05-06 04:25:00,46.9,44.2,26.78,South,176,0.0,0.0,90,0.00,,---,0.00,VWS V14.01,2013-05-06 09:25:00,
2013-05-06 04:26:00,46.9,44.2,26.78,South,176,0.0,0.0,90,0.00,,---,0.00,VWS V14.01,2013-05-06 09:26:00,
2013-05-06 04:28:00,46.9,44.2,26.78,South,176,0.0,0.0,90,0.00,,---,0.00,VWS V14.01,2013-05-06 09:28:00,
2013-05-06 04:30:00,46.9,44.2,26.78,South,176,0.0,0.0,90,0.00,,---,0.00,VWS V14.01,2013-05-06 09:30:00,
2013-05-06 04:31:00,46.9,44.2,26.78,South,176,0.0,0.0,90,0.00,,---,0.00,VWS V14.01,2013-05-06 09:31:00,
2013-05-06 04:33:00,46.8,44.0,26.78,South,176,0.0,0.0,90,0.00,,---,0.00,VWS V14.01,2013-05-06 09:33:00,
2013-05-06 04:35:00,46.8,44.0,26.78,South,176,0.0,0.0,90,0.00,,---,0.00,VWS V14.01,2013-05-06 09:35:00,
2013-05-06 04:36:00,46.6,43.8,26.78,South,176,0.0,0.0,90,0.00,,---,0.00,VWS V14.01,2013-05-06 09:36:00,
2013-05-06 04:38:00,46.6,43.8,26.78,South,176,0.0,0.0,90,0.00,,---,0.00,VWS V14.01,2013-05-06 09:38:00,
2013-05-06 04:40:00,46.6,43.8,26.75,South,176,0.0,0.0,90,0.00,,---,0.00,VWS V14.01,2013-05-06 09:40:00,
2013-05-06 04:41:00,46.6,43.8,26.75,South,176,0.0,0.0,90,0.00,,---,0.00,VWS V14.01,2013-05-06 09:41:00,
2013-05-06 04:42:00,46.6,43.8,26.75,South,176,0.0,0.0,90,0.00,,---,0.00,VWS V14.01,2013-05-06 09:42:00,
2013-05-06 04:43:00,46.6,43.8,26.75,South,176,0.0,0.0,90,0.00,,---,0.00,VWS V14.01,2013-05-06 09:43:00,
2013-05-06 04:45:00,46.6,43.8,26.75,South,176,0.0,0.0,90,0.00,,---,0.00,VWS V14.01,2013-05-06 09:45:00,
2013-05-06 04:46:00,46.6,43.8,26.75,South,176,0.0,0.0,90,0.00,,---,0.00,VWS V14.01,2013-05-06 09:46:00,
2013-05-06 04:47:00,46.6,43.8,26.75,South,176,0.0,0.0,90,0.00,,---,0.00,VWS V14.01,2013-05-06 09:47:00,
2013-05-06 04:48:00,46.6,43.8,26.75,South,176,0.0,0.0,90,0.00,,---,0.00,VWS V14.01,2013-05-06 09:48:00,
2013-05-06 04:50:00,46.6,43.8,26.75,South,176,0.0,0.0,90,0.00,,---,0.00,VWS V14.01,2013-05-06 09:50:00,
2013-05-06 04:51:00,46.6,43.8,26.75,South,176,0.0,0.0,90,0.00,,---,0.00,VWS V14.01,2013-05-06 09:51:00,
2013-05-06 04:52:00,46.6,43.8,26.75,South,176,0.0,0.0,90,0.00,,---,0.00,VWS V14.01,2013-05-06 09:52:00,
2013-05-06 04:53:00,46.6,43.8,26.75,South,176,0.0,0.0,90,0.00,,---,0.00,VWS V14.01,2013-05-06 09:53:00,
2013-05-06 04:55:00,46.6,43.8,26.75,South,176,0.0,0.0,90,0.00,,---,0.00,VWS V14.01,2013-05-06 09:55:00,
2013-05-06 04:56:00,46.6,43.8,26.75,South,176,0.0,0.0,90,0.00,,---,0.00,VWS V14.01,2013-05-06 09:56:00,
2013-05-06 04:57:00,46.6,43.8,26.81,South,176,0.0,0.0,90,0.00,,---,0.00,VWS V14.01,2013-05-06 09:57:00,
2013-05-06 04:58:00,46.6,43.8,26.81,South,176,0.0,0.0,90,0.00,,---,0.00,VWS V14.01,2013-05-06 09:58:00,
2013-05-06 05:00:00,46.6,43.8,26.81,South,176,0.0,0.0,90,0.00,,---,0.00,VWS V14.01,2013-05-06 10:00:00,
2013-05-06 05:01:00,46.6,43.8,26.81,South,176,0.0,0.0,90,0.00,,---,0.00,VWS V14.01,2013-05-06 10:01:00,
2013-05-06 05:02:00,46.8,44.3,26.81,South,176,0.0,0.0,91,0.00,,---,0.00,VWS V14.01,2013-05-06 10:02:00,
2013-05-06 05:04:00,46.8,44.3,26.81,South,176,0.0,0.0,91,0.00,,---,0.00,VWS V14.01,2013-05-06 10:04:00,
2013-05-06 05:06:00,46.8,44.3,26.81,South,176,0.0,0.0,91,0.00,,---,0.00,VWS V14.01,2013-05-06 10:06:00,
2013-05-06 05:08:00,46.8,44.3,26.81,South,176,0.0,0.0,91,0.00,,---,0.00,VWS V14.01,2013-05-06 10:08:00,
2013-05-06 05:10:00,46.8,44.3,26.81,South,176,0.0,0.0,91,0.00,,---,0.00,VWS V14.01,2013-05-06 10:10:00,
2013-05-06 05:11:00,46.8,44.3,26.81,South,176,0.0,0.0,91,0.00,,---,0.00,VWS V14.01,2013-05-06 10:11:00,
2013-05-06 05:13:00,46.8,44.3,26.81,South,176,0.0,0.0,91,0.00,,---,0.00,VWS V14.01,2013-05-06 10:13:00,
2013-05-06 05:15:00,46.8,44.3,26.81,South,176,0.0,0.0,91,0.00,,---,0.00,VWS V14.01,2013-05-06 10:15:00,
2013-05-06 05:16:00,46.8,44.3,26.81,South,176,0.0,0.0,91,0.00,,---,0.00,VWS V14.01,2013-05-06 10:16:00,
2013-05-06 05:17:00,46.8,44.3,26.81,South,176,0.0,0.0,91,0.00,,---,0.00,VWS V14.01,2013-05-06 10:17:00,
2013-05-06 05:18:00,46.9,44.5,26.81,South,176,0.0,0.0,91,0.00,,---,0.00,VWS V14.01,2013-05-06 10:18:00,
2013-05-06 05:20:00,46.9,44.5,26.81,South,176,0.0,0.0,91,0.00,,---,0.00,VWS V14.01,2013-05-06 10:20:00,
2013-05-06 05:21:00,46.9,44.5,26.81,South,176,0.0,0.0,91,0.00,,---,0.00,VWS V14.01,2013-05-06 10:21:00,
2013-05-06 05:22:00,46.9,44.5,26.81,South,176,0.0,0.0,91,0.00,,---,0.00,VWS V14.01,2013-05-06 10:22:00,
2013-05-06 05:23:00,46.9,44.5,26.81,South,176,0.0,0.0,91,0.00,,---,0.00,VWS V14.01,2013-05-06 10:23:00,
2013-05-06 05:25:00,46.9,44.5,26.81,South,176,0.0,0.0,91,0.00,,---,0.00,VWS V14.01,2013-05-06 10:25:00,
2013-05-06 05:26:00,47.1,44.6,26.81,South,176,0.0,0.0,91,0.00,,---,0.00,VWS V14.01,2013-05-06 10:26:00,
2013-05-06 05:27:00,47.1,44.6,26.81,South,176,0.0,0.0,91,0.00,,---,0.00,VWS V14.01,2013-05-06 10:27:00,
2013-05-06 05:28:00,47.1,44.6,26.81,South,176,0.0,0.0,91,0.00,,---,0.00,VWS V14.01,2013-05-06 10:28:00,
2013-05-06 05:30:00,46.9,44.5,26.81,South,176,0.0,0.0,91,0.00,,---,0.00,VWS V14.01,2013-05-06 10:30:00,
2013-05-06 05:31:00,46.9,44.5,26.81,South,176,0.0,0.0,91,0.00,,---,0.00,VWS V14.01,2013-05-06 10:31:00,
2013-05-06 05:32:00,46.9,44.5,26.81,South,176,0.0,0.0,91,0.00,,---,0.00,VWS V14.01,2013-05-06 10:32:00,
2013-05-06 05:33:00,46.9,44.5,26.81,South,176,0.0,0.0,91,0.00,,---,0.00,VWS V14.01,2013-05-06 10:33:00,
2013-05-06 05:35:00,46.9,44.5,26.81,South,176,0.0,0.0,91,0.00,,---,0.00,VWS V14.01,2013-05-06 10:35:00,
2013-05-06 05:36:00,46.9,44.5,26.81,South,176,0.0,0.0,91,0.00,,---,0.00,VWS V14.01,2013-05-06 10:36:00,
2013-05-06 05:37:00,46.9,44.5,26.81,South,176,0.0,0.0,91,0.00,,---,0.00,VWS V14.01,2013-05-06 10:37:00,
2013-05-06 05:38:00,46.9,44.5,26.81,South,176,0.0,0.0,91,0.00,,---,0.00,VWS V14.01,2013-05-06 10:38:00,
2013-05-06 05:40:00,46.9,44.5,26.78,South,176,0.0,0.0,91,0.00,,---,0.00,VWS V14.01,2013-05-06 10:40:00,
2013-05-06 05:41:00,46.9,44.5,26.78,South,176,0.0,0.0,91,0.00,,---,0.00,VWS V14.01,2013-05-06 10:41:00,
2013-05-06 05:42:00,46.9,44.5,26.78,South,176,0.0,0.0,91,0.00,,---,0.00,VWS V14.01,2013-05-06 10:42:00,
2013-05-06 05:44:00,46.9,44.5,26.78,South,176,0.0,0.0,91,0.00,,---,0.00,VWS V14.01,2013-05-06 10:44:00,
2013-05-06 05:45:00,46.9,44.5,26.78,South,176,0.0,0.0,91,0.00,,---,0.00,VWS V14.01,2013-05-06 10:45:00,
2013-05-06 05:47:00,46.9,44.5,26.78,South,176,0.0,0.0,91,0.00,,---,0.00,VWS V14.01,2013-05-06 10:47:00,
2013-05-06 05:48:00,47.1,44.6,26.78,South,176,0.0,0.0,91,0.00,,---,0.00,VWS V14.01,2013-05-06 10:48:00,
2013-05-06 05:49:00,47.1,44.6,26.78,South,176,0.0,0.0,91,0.00,,---,0.00,VWS V14.01,2013-05-06 10:49:00,
2013-05-06 05:50:00,47.1,44.6,26.78,South,176,0.0,0.0,91,0.00,,---,0.00,VWS V14.01,2013-05-06 10:50:00,
2013-05-06 05:52:00,47.1,44.6,26.78,South,176,0.0,0.0,91,0.00,,---,0.00,VWS V14.01,2013-05-06 10:52:00,
2013-05-06 05:53:00,47.1,44.6,26.78,South,176,2.2,2.2,91,0.00,,---,0.00,VWS V14.01,2013-05-06 10:53:00,
2013-05-06 05:54:00,47.1,44.6,26.78,South,176,2.2,2.2,91,0.00,,---,0.00,VWS V14.01,2013-05-06 10:54:00,
2013-05-06 05:55:00,47.1,44.6,26.81,South,176,2.2,2.2,91,0.00,,---,0.00,VWS V14.01,2013-05-06 10:55:00,
2013-05-06 05:57:00,47.1,44.6,26.81,South,176,2.2,2.2,91,0.00,,---,0.00,VWS V14.01,2013-05-06 10:57:00,
2013-05-06 05:58:00,47.1,44.6,26.81,South,176,2.2,2.2,91,0.00,,---,0.00,VWS V14.01,2013-05-06 10:58:00,
2013-05-06 05:59:00,47.1,44.6,26.81,South,176,0.0,0.0,91,0.00,,---,0.00,VWS V14.01,2013-05-06 10:59:00,
2013-05-06 06:00:00,47.1,44.6,26.81,South,176,0.0,0.0,91,0.00,,---,0.00,VWS V14.01,2013-05-06 11:00:00,
2013-05-06 06:02:00,47.1,44.6,26.81,South,176,0.0,0.0,91,0.00,,---,0.00,VWS V14.01,2013-05-06 11:02:00,
2013-05-06 06:03:00,47.3,44.8,26.81,South,176,0.0,0.0,91,0.00,,---,0.00,VWS V14.01,2013-05-06 11:03:00,
2013-05-06 06:04:00,47.3,44.8,26.81,South,176,0.0,0.0,91,0.00,,---,0.00,VWS V14.01,2013-05-06 11:04:00,
2013-05-06 06:05:00,47.3,45.1,26.81,South,176,0.0,0.0,92,0.00,,---,0.00,VWS V14.01,2013-05-06 11:05:00,
2013-05-06 06:07:00,47.3,45.1,26.81,South,176,0.0,0.0,92,0.00,,---,0.00,VWS V14.01,2013-05-06 11:07:00,
2013-05-06 06:08:00,47.3,45.1,26.81,South,176,0.0,0.0,92,0.00,,---,0.00,VWS V14.01,2013-05-06 11:08:00,
2013-05-06 06:09:00,47.3,45.1,26.78,South,176,0.0,0.0,92,0.00,,---,0.00,VWS V14.01,2013-05-06 11:09:00,
2013-05-06 06:11:00,47.3,45.1,26.78,South,176,0.0,0.0,92,0.00,,---,0.00,VWS V14.01,2013-05-06 11:11:00,
2013-05-06 06:12:00,47.3,45.1,26.78,South,176,0.0,0.0,92,0.00,,---,0.00,VWS V14.01,2013-05-06 11:12:00,
2013-05-06 06:13:00,47.3,45.1,26.78,South,176,0.0,0.0,92,0.00,,---,0.00,VWS V14.01,2013-05-06 11:13:00,
2013-05-06 06:14:00,47.3,45.1,26.78,South,176,0.0,0.0,92,0.00,,---,0.00,VWS V14.01,2013-05-06 11:14:00,
2013-05-06 06:16:00,47.3,45.1,26.78,South,176,0.0,0.0,92,0.00,,---,0.00,VWS V14.01,2013-05-06 11:16:00,
2013-05-06 06:17:00,47.3,45.1,26.78,South,176,0.0,0.0,92,0.00,,---,0.00,VWS V14.01,2013-05-06 11:17:00,
2013-05-06 06:18:00,47.3,45.1,26.78,South,176,0.0,0.0,92,0.00,,---,0.00,VWS V14.01,2013-05-06 11:18:00,
2013-05-06 06:20:00,47.5,45.3,26.78,South,176,0.0,0.0,92,0.00,,---,0.00,VWS V14.01,2013-05-06 11:20:00,
2013-05-06 06:21:00,47.5,45.3,26.78,South,176,0.0,0.0,92,0.00,,---,0.00,VWS V14.01,2013-05-06 11:21:00,
2013-05-06 06:22:00,47.5,45.3,26.78,South,176,0.0,0.0,92,0.00,,---,0.00,VWS V14.01,2013-05-06 11:22:00,
2013-05-06 06:23:00,47.5,45.3,26.78,South,176,0.0,0.0,92,0.00,,---,0.00,VWS V14.01,2013-05-06 11:23:00,
2013-05-06 06:24:00,47.5,45.3,26.78,South,176,0.0,0.0,92,0.00,,---,0.00,VWS V14.01,2013-05-06 11:24:00,
2013-05-06 06:25:00,47.5,45.3,26.78,South,176,0.0,0.0,92,0.00,,---,0.00,VWS V14.01,2013-05-06 11:25:00,
2013-05-06 06:26:00,47.5,45.3,26.78,South,176,0.0,0.0,92,0.00,,---,0.00,VWS V14.01,2013-05-06 11:26:00,
2013-05-06 06:28:00,47.5,45.3,26.78,South,176,0.0,0.0,92,0.00,,---,0.00,VWS V14.01,2013-05-06 11:28:00,
2013-05-06 06:29:00,47.5,45.3,26.78,South,176,0.0,0.0,92,0.00,,---,0.00,VWS V14.01,2013-05-06 11:29:00,
2013-05-06 06:30:00,47.5,45.3,26.78,South,176,0.0,0.0,92,0.00,,---,0.00,VWS V14.01,2013-05-06 11:30:00,
2013-05-06 06:31:00,47.5,45.3,26.78,South,176,0.0,0.0,92,0.00,,---,0.00,VWS V14.01,2013-05-06 11:31:00,
2013-05-06 06:33:00,47.7,45.5,26.78,South,176,0.0,0.0,92,0.00,,---,0.00,VWS V14.01,2013-05-06 11:33:00,
2013-05-06 06:34:00,47.7,45.5,26.78,South,176,0.0,0.0,92,0.00,,---,0.00,VWS V14.01,2013-05-06 11:34:00,
2013-05-06 06:35:00,47.7,45.5,26.78,South,176,0.0,0.0,92,0.00,,---,0.00,VWS V14.01,2013-05-06 11:35:00,
2013-05-06 06:36:00,47.7,45.5,26.78,South,176,0.0,0.0,92,0.00,,---,0.00,VWS V14.01,2013-05-06 11:36:00,
2013-05-06 06:38:00,47.7,45.5,26.78,South,176,0.0,0.0,92,0.00,,---,0.00,VWS V14.01,2013-05-06 11:38:00,
2013-05-06 06:39:00,47.7,45.5,26.78,South,176,0.0,0.0,92,0.00,,---,0.00,VWS V14.01,2013-05-06 11:39:00,
2013-05-06 06:40:00,47.7,45.5,26.78,South,176,0.0,0.0,92,0.00,,---,0.00,VWS V14.01,2013-05-06 11:40:00,
2013-05-06 06:41:00,47.7,45.5,26.81,South,176,0.0,0.0,92,0.00,,---,0.00,VWS V14.01,2013-05-06 11:41:00,
2013-05-06 06:43:00,47.7,45.5,26.81,South,176,0.0,0.0,92,0.00,,---,0.00,VWS V14.01,2013-05-06 11:43:00,
2013-05-06 06:44:00,47.7,45.5,26.81,South,176,0.0,0.0,92,0.00,,---,0.00,VWS V14.01,2013-05-06 11:44:00,
2013-05-06 06:45:00,47.7,45.5,26.81,South,176,0.0,0.0,92,0.00,,---,0.00,VWS V14.01,2013-05-06 11:45:00,
2013-05-06 06:46:00,47.7,45.5,26.81,South,176,0.0,0.0,92,0.00,,---,0.00,VWS V14.01,2013-05-06 11:46:00,
2013-05-06 06:48:00,47.7,45.5,26.81,South,176,0.0,0.0,92,0.00,,---,0.00,VWS V14.01,2013-05-06 11:48:00,
2013-05-06 06:49:00,47.7,45.5,26.81,South,176,0.0,0.0,92,0.00,,---,0.00,VWS V14.01,2013-05-06 11:49:00,
2013-05-06 06:51:00,47.7,45.5,26.81,South,176,0.0,0.0,92,0.00,,---,0.00,VWS V14.01,2013-05-06 11:51:00,
2013-05-06 06:52:00,47.7,45.5,26.81,South,176,0.0,0.0,92,0.00,,---,0.00,VWS V14.01,2013-05-06 11:52:00,
2013-05-06 06:53:00,47.7,45.5,26.81,South,176,0.0,0.0,92,0.00,,---,0.00,VWS V14.01,2013-05-06 11:53:00,
2013-05-06 06:54:00,47.7,45.5,26.81,South,176,0.0,0.0,92,0.00,,---,0.00,VWS V14.01,2013-05-06 11:54:00,
2013-05-06 06:56:00,47.8,45.6,26.84,South,176,0.0,0.0,92,0.00,,---,0.00,VWS V14.01,2013-05-06 11:56:00,
2013-05-06 06:57:00,47.8,45.6,26.84,South,176,0.0,0.0,92,0.00,,---,0.00,VWS V14.01,2013-05-06 11:57:00,
2013-05-06 06:59:00,47.8,45.6,26.84,South,176,0.0,0.0,92,0.00,,---,0.00,VWS V14.01,2013-05-06 11:59:00,
2013-05-06 07:01:00,47.8,45.6,26.84,South,176,0.0,0.0,92,0.00,,---,0.00,VWS V14.01,2013-05-06 12:01:00,
2013-05-06 07:02:00,47.8,45.6,26.84,South,176,0.0,0.0,92,0.00,,---,0.00,VWS V14.01,2013-05-06 12:02:00,
2013-05-06 07:04:00,48.0,45.8,26.84,South,176,0.0,0.0,92,0.00,,---,0.00,VWS V14.01,2013-05-06 12:04:00,
2013-05-06 07:07:00,48.0,45.8,26.84,South,176,0.0,0.0,92,0.00,,---,0.00,VWS V14.01,2013-05-06 12:07:00,
2013-05-06 07:09:00,48.0,45.8,26.81,South,176,0.0,0.0,92,0.00,,---,0.00,VWS V14.01,2013-05-06 12:09:00,
2013-05-06 07:12:00,48.0,45.8,26.81,South,176,0.0,0.0,92,0.00,,---,0.00,VWS V14.01,2013-05-06 12:12:00,
2013-05-06 07:14:00,48.2,46.0,26.81,South,176,0.0,0.0,92,0.00,,---,0.00,VWS V14.01,2013-05-06 12:14:00,
2013-05-06 07:17:00,48.2,46.0,26.81,South,176,0.0,0.0,92,0.00,,---,0.00,VWS V14.01,2013-05-06 12:17:00,
2013-05-06 07:19:00,48.2,46.0,26.81,SE,131,0.0,0.0,92,0.00,,---,0.00,VWS V14.01,2013-05-06 12:19:00,
2013-05-06 07:20:00,48.2,46.0,26.81,SE,131,0.0,0.0,92,0.00,,---,0.00,VWS V14.01,2013-05-06 12:20:00,
2013-05-06 07:22:00,48.2,46.0,26.81,SE,131,0.0,0.0,92,0.00,,---,0.00,VWS V14.01,2013-05-06 12:22:00,
2013-05-06 07:24:00,48.2,46.0,26.81,SE,131,0.0,0.0,92,0.00,,---,0.00,VWS V14.01,2013-05-06 12:24:00,
2013-05-06 07:25:00,48.2,46.0,26.81,SE,131,0.0,0.0,92,0.00,,---,0.00,VWS V14.01,2013-05-06 12:25:00,
2013-05-06 07:27:00,48.2,46.0,26.81,SE,131,0.0,0.0,92,0.00,,---,0.00,VWS V14.01,2013-05-06 12:27:00,
2013-05-06 07:28:00,48.2,46.0,26.81,SE,131,0.0,0.0,92,0.00,,---,0.00,VWS V14.01,2013-05-06 12:28:00,
2013-05-06 07:29:00,48.2,46.0,26.81,SE,131,0.0,0.0,92,0.00,,---,0.00,VWS V14.01,2013-05-06 12:29:00,
2013-05-06 07:30:00,48.2,46.0,26.81,SE,131,0.0,0.0,92,0.00,,---,0.00,VWS V14.01,2013-05-06 12:30:00,
2013-05-06 07:33:00,48.4,46.2,26.81,SE,131,0.0,0.0,92,0.00,,---,0.00,VWS V14.01,2013-05-06 12:33:00,
2013-05-06 07:35:00,48.4,46.2,26.81,SE,131,0.0,0.0,92,0.00,,---,0.00,VWS V14.01,2013-05-06 12:35:00,
2013-05-06 07:38:00,48.4,46.2,26.81,South,171,0.0,0.0,92,0.00,,---,0.00,VWS V14.01,2013-05-06 12:38:00,
2013-05-06 07:40:00,48.4,46.2,26.78,South,171,0.0,0.0,92,0.00,,---,0.00,VWS V14.01,2013-05-06 12:40:00,
2013-05-06 07:43:00,48.4,46.2,26.78,SSE,149,0.0,0.0,92,0.00,,---,0.00,VWS V14.01,2013-05-06 12:43:00,
2013-05-06 07:44:00,48.4,46.2,26.78,SSE,149,0.0,0.0,92,0.00,,---,0.00,VWS V14.01,2013-05-06 12:44:00,
2013-05-06 07:45:00,48.4,46.2,26.78,ESE,117,0.0,0.0,92,0.00,,---,0.00,VWS V14.01,2013-05-06 12:45:00,
2013-05-06 07:49:00,48.4,46.2,26.78,SSE,158,2.2,2.2,92,0.00,,---,0.00,VWS V14.01,2013-05-06 12:49:00,
2013-05-06 07:50:00,48.4,46.2,26.78,SSE,158,0.0,0.0,92,0.00,,---,0.00,VWS V14.01,2013-05-06 12:50:00,
2013-05-06 07:54:00,48.4,46.2,26.78,SSE,158,0.0,0.0,92,0.00,,---,0.00,VWS V14.01,2013-05-06 12:54:00,
2013-05-06 07:55:00,48.4,46.2,26.78,SSE,158,0.0,0.0,92,0.00,,---,0.00,VWS V14.01,2013-05-06 12:55:00,
2013-05-06 07:59:00,48.4,46.2,26.78,South,175,2.7,2.7,92,0.00,,---,0.00,VWS V14.01,2013-05-06 12:59:00,
2013-05-06 08:00:00,48.4,46.2,26.78,South,175,2.7,2.7,92,0.04,,---,0.04,VWS V14.01,2013-05-06 13:00:00,
2013-05-06 08:01:00,48.4,46.2,26.78,South,175,2.7,2.7,92,0.04,,---,0.04,VWS V14.01,2013-05-06 13:01:00,
2013-05-06 08:04:00,48.4,46.2,26.81,SSE,165,2.2,2.2,92,0.04,,---,0.04,VWS V14.01,2013-05-06 13:04:00,
2013-05-06 08:05:00,48.4,46.2,26.81,SSE,165,2.2,2.2,92,0.04,,---,0.04,VWS V14.01,2013-05-06 13:05:00,
2013-05-06 08:06:00,48.4,46.2,26.81,SSE,163,0.0,0.0,92,0.04,,---,0.04,VWS V14.01,2013-05-06 13:06:00,
2013-05-06 08:09:00,48.4,46.2,26.81,SSE,163,0.0,0.0,92,0.04,,---,0.04,VWS V14.01,2013-05-06 13:09:00,
2013-05-06 08:10:00,48.4,46.2,26.81,SSE,163,0.0,0.0,92,0.04,,---,0.04,VWS V14.01,2013-05-06 13:10:00,
2013-05-06 08:11:00,48.4,46.2,26.81,SSE,163,0.0,0.0,92,0.04,,---,0.04,VWS V14.01,2013-05-06 13:11:00,
2013-05-06 08:14:00,48.6,46.3,26.81,South,184,2.2,2.2,92,0.04,,---,0.04,VWS V14.01,2013-05-06 13:14:00,
2013-05-06 08:15:00,48.6,46.3,26.81,South,184,2.2,2.2,92,0.04,,---,0.04,VWS V14.01,2013-05-06 13:15:00,
2013-05-06 08:16:00,48.6,46.3,26.81,South,184,2.2,2.2,92,0.04,,---,0.04,VWS V14.01,2013-05-06 13:16:00,
2013-05-06 08:19:00,48.7,46.5,26.81,SSE,149,2.2,2.7,92,0.04,,---,0.04,VWS V14.01,2013-05-06 13:19:00,
2013-05-06 08:20:00,48.7,46.5,26.81,SSE,149,2.2,2.7,92,0.04,,---,0.04,VWS V14.01,2013-05-06 13:20:00,
2013-05-06 08:21:00,48.7,46.5,26.81,SSE,149,2.2,2.2,92,0.04,,---,0.04,VWS V14.01,2013-05-06 13:21:00,
2013-05-06 08:22:00,48.7,46.5,26.81,SSE,149,2.2,2.2,92,0.08,,---,0.08,VWS V14.01,2013-05-06 13:22:00,
2013-05-06 08:24:00,48.7,46.5,26.81,South,178,0.0,0.0,92,0.08,,---,0.08,VWS V14.01,2013-05-06 13:24:00,
2013-05-06 08:25:00,48.7,46.5,26.81,South,178,0.0,0.0,92,0.08,,---,0.08,VWS V14.01,2013-05-06 13:25:00,
2013-05-06 08:26:00,48.7,46.5,26.81,South,179,0.0,0.0,92,0.08,,---,0.08,VWS V14.01,2013-05-06 13:26:00,
2013-05-06 08:27:00,48.7,46.5,26.81,South,179,2.2,2.2,92,0.08,,---,0.08,VWS V14.01,2013-05-06 13:27:00,
2013-05-06 08:29:00,48.9,46.7,26.81,South,179,2.2,2.2,92,0.08,,---,0.08,VWS V14.01,2013-05-06 13:29:00,
2013-05-06 08:30:00,48.9,46.7,26.81,SSE,163,0.0,0.0,92,0.08,,---,0.08,VWS V14.01,2013-05-06 13:30:00,
2013-05-06 08:31:00,48.9,46.7,26.81,SSE,163,0.0,0.0,92,0.08,,---,0.08,VWS V14.01,2013-05-06 13:31:00,
2013-05-06 08:32:00,48.9,46.7,26.81,SSE,163,0.0,0.0,92,0.08,,---,0.08,VWS V14.01,2013-05-06 13:32:00,
2013-05-06 08:34:00,48.9,46.7,26.81,SSE,164,0.0,0.0,92,0.08,,---,0.08,VWS V14.01,2013-05-06 13:34:00,
2013-05-06 08:35:00,48.9,46.7,26.81,SSE,164,0.0,0.0,92,0.08,,---,0.08,VWS V14.01,2013-05-06 13:35:00,
2013-05-06 08:36:00,48.9,46.7,26.81,SSE,164,0.0,0.0,92,0.08,,---,0.08,VWS V14.01,2013-05-06 13:36:00,
2013-05-06 08:37:00,48.9,46.7,26.81,SSE,164,0.0,0.0,92,0.08,,---,0.08,VWS V14.01,2013-05-06 13:37:00,
2013-05-06 08:39:00,49.1,46.9,26.81,South,170,0.0,0.0,92,0.08,,---,0.08,VWS V14.01,2013-05-06 13:39:00,
2013-05-06 08:41:00,49.3,47.1,26.81,SW,221,3.1,3.1,92,0.08,,---,0.08,VWS V14.01,2013-05-06 13:41:00,
2013-05-06 08:42:00,49.3,47.1,26.81,SW,221,3.1,3.1,92,0.08,,---,0.08,VWS V14.01,2013-05-06 13:42:00,
2013-05-06 08:44:00,49.3,47.1,26.81,South,170,0.0,0.0,92,0.08,,---,0.08,VWS V14.01,2013-05-06 13:44:00,
2013-05-06 08:46:00,49.3,47.1,26.81,South,170,0.0,0.0,92,0.08,,---,0.08,VWS V14.01,2013-05-06 13:46:00,
2013-05-06 08:47:00,49.3,47.1,26.81,South,170,0.0,0.0,92,0.08,,---,0.08,VWS V14.01,2013-05-06 13:47:00,
2013-05-06 08:50:00,49.6,47.7,26.81,South,170,0.0,0.0,93,0.08,,---,0.08,VWS V14.01,2013-05-06 13:50:00,
2013-05-06 08:51:00,49.6,47.7,26.81,South,170,0.0,0.0,93,0.08,,---,0.08,VWS V14.01,2013-05-06 13:51:00,
2013-05-06 08:52:00,49.6,47.7,26.81,SE,141,2.2,2.2,93,0.08,,---,0.08,VWS V14.01,2013-05-06 13:52:00,
2013-05-06 08:55:00,50.2,48.0,26.81,South,181,0.0,0.0,92,0.08,,---,0.08,VWS V14.01,2013-05-06 13:55:00,
2013-05-06 08:56:00,50.2,48.0,26.81,South,178,2.7,2.7,92,0.08,,---,0.08,VWS V14.01,2013-05-06 13:56:00,
2013-05-06 08:57:00,50.2,48.0,26.81,South,178,2.2,2.7,92,0.08,,---,0.08,VWS V14.01,2013-05-06 13:57:00,
2013-05-06 09:00:00,50.5,48.3,26.81,SSE,155,5.8,5.8,92,0.04,,---,0.08,VWS V14.01,2013-05-06 14:00:00,
2013-05-06 09:01:00,50.7,48.5,26.81,SE,139,3.1,3.1,92,0.04,,---,0.08,VWS V14.01,2013-05-06 14:01:00,
2013-05-06 09:02:00,50.7,48.5,26.81,SE,139,3.1,3.1,92,0.04,,---,0.08,VWS V14.01,2013-05-06 14:02:00,
2013-05-06 09:05:00,51.1,48.8,26.81,South,172,5.4,5.4,92,0.04,,---,0.08,VWS V14.01,2013-05-06 14:05:00,
2013-05-06 09:06:00,51.1,48.8,26.81,South,172,5.4,5.4,92,0.04,,---,0.08,VWS V14.01,2013-05-06 14:06:00,
2013-05-06 09:07:00,51.3,49.0,26.81,South,172,5.4,5.4,92,0.04,,---,0.08,VWS V14.01,2013-05-06 14:07:00,
2013-05-06 09:10:00,51.3,49.0,26.81,SSE,154,2.7,2.7,92,0.04,,---,0.08,VWS V14.01,2013-05-06 14:10:00,
2013-05-06 09:11:00,51.3,49.0,26.81,South,170,0.0,0.0,92,0.04,,---,0.08,VWS V14.01,2013-05-06 14:11:00,
2013-05-06 09:12:00,51.8,49.5,26.75,South,170,0.0,0.0,92,0.04,,---,0.08,VWS V14.01,2013-05-06 14:12:00,
2013-05-06 09:13:00,51.8,49.5,26.75,South,170,0.0,0.0,92,0.04,,---,0.08,VWS V14.01,2013-05-06 14:13:00,
2013-05-06 09:15:00,51.8,49.5,26.75,SSE,157,3.6,3.6,92,0.04,,---,0.08,VWS V14.01,2013-05-06 14:15:00,
2013-05-06 09:16:00,51.8,49.5,26.75,SSE,157,3.6,3.6,92,0.04,,---,0.08,VWS V14.01,2013-05-06 14:16:00,
2013-05-06 09:17:00,51.8,49.5,26.75,SSE,157,3.6,3.6,92,0.04,,---,0.08,VWS V14.01,2013-05-06 14:17:00,
2013-05-06 09:18:00,51.8,49.5,26.75,SSE,157,3.6,3.6,92,0.04,,---,0.08,VWS V14.01,2013-05-06 14:18:00,
2013-05-06 09:20:00,52.3,50.1,26.75,SSW,199,2.2,2.2,92,0.04,,---,0.08,VWS V14.01,2013-05-06 14:20:00,
2013-05-06 09:22:00,52.5,50.3,26.75,SSE,154,2.7,2.7,92,0.04,,---,0.08,VWS V14.01,2013-05-06 14:22:00,
2013-05-06 09:23:00,52.5,50.3,26.75,South,174,4.9,4.9,92,0.00,,---,0.08,VWS V14.01,2013-05-06 14:23:00,
2013-05-06 09:26:00,52.5,50.3,26.81,SSE,156,2.7,2.7,92,0.00,,---,0.08,VWS V14.01,2013-05-06 14:26:00,
2013-05-06 09:27:00,52.2,49.6,26.81,SSE,156,2.7,2.7,91,0.00,,---,0.08,VWS V14.01,2013-05-06 14:27:00,
2013-05-06 09:28:00,52.2,49.6,26.81,SSE,156,2.7,2.7,91,0.00,,---,0.08,VWS V14.01,2013-05-06 14:28:00,
2013-05-06 09:31:00,51.8,49.0,26.81,South,180,4.9,4.9,90,0.00,,---,0.08,VWS V14.01,2013-05-06 14:31:00,
2013-05-06 09:32:00,51.8,49.0,26.81,SE,126,2.7,2.7,90,0.00,,---,0.08,VWS V14.01,2013-05-06 14:32:00,
2013-05-06 09:33:00,51.8,48.7,26.81,SE,126,2.7,2.7,89,0.00,,---,0.08,VWS V14.01,2013-05-06 14:33:00,
2013-05-06 09:36:00,51.8,48.7,26.81,South,177,4.9,4.9,89,0.00,,---,0.08,VWS V14.01,2013-05-06 14:36:00,
2013-05-06 09:37:00,51.6,48.5,26.81,South,183,6.3,6.3,89,0.00,,---,0.08,VWS V14.01,2013-05-06 14:37:00,
2013-05-06 09:38:00,51.6,48.5,26.81,South,183,6.3,6.3,89,0.00,,---,0.08,VWS V14.01,2013-05-06 14:38:00,
2013-05-06 09:41:00,51.8,48.4,26.81,South,187,2.7,2.7,88,0.00,,---,0.08,VWS V14.01,2013-05-06 14:41:00,
2013-05-06 09:42:00,51.8,48.4,26.81,South,187,2.7,2.7,88,0.00,,---,0.08,VWS V14.01,2013-05-06 14:42:00,
2013-05-06 09:43:00,51.8,48.4,26.81,South,187,2.7,2.7,88,0.00,,---,0.08,VWS V14.01,2013-05-06 14:43:00,
2013-05-06 09:46:00,51.8,48.4,26.81,South,186,0.0,0.0,88,0.00,,---,0.08,VWS V14.01,2013-05-06 14:46:00,
2013-05-06 09:48:00,52.5,48.8,26.81,South,186,0.0,0.0,87,0.00,,---,0.08,VWS V14.01,2013-05-06 14:48:00,
2013-05-06 09:49:00,52.5,48.8,26.81,South,186,0.0,0.0,87,0.00,,---,0.08,VWS V14.01,2013-05-06 14:49:00,
2013-05-06 09:51:00,52.7,49.0,26.81,WSW,246,0.0,0.0,87,0.00,,---,0.08,VWS V14.01,2013-05-06 14:51:00,
2013-05-06 09:53:00,52.7,49.0,26.81,WSW,246,0.0,0.0,87,0.00,,---,0.08,VWS V14.01,2013-05-06 14:53:00,
2013-05-06 09:54:00,52.7,49.0,26.81,South,186,2.2,2.2,87,0.00,,---,0.08,VWS V14.01,2013-05-06 14:54:00,
2013-05-06 09:56:00,52.9,48.8,26.87,South,186,2.2,2.2,86,0.00,,---,0.08,VWS V14.01,2013-05-06 14:56:00,
2013-05-06 09:58:00,53.1,49.0,26.87,South,186,2.2,2.2,86,0.00,,---,0.08,VWS V14.01,2013-05-06 14:58:00,
2013-05-06 09:59:00,53.1,49.0,26.87,South,181,2.7,2.7,86,0.00,,---,0.08,VWS V14.01,2013-05-06 14:59:00,
2013-05-06 10:01:00,53.1,49.0,26.87,South,191,2.2,2.2,86,0.00,,---,0.08,VWS V14.01,2013-05-06 15:01:00,
2013-05-06 10:03:00,53.1,49.0,26.87,SE,145,2.7,2.7,86,0.00,,---,0.08,VWS V14.01,2013-05-06 15:03:00,
2013-05-06 10:04:00,53.4,49.0,26.87,SE,145,2.7,2.7,85,0.00,,---,0.08,VWS V14.01,2013-05-06 15:04:00,
2013-05-06 10:06:00,53.4,48.7,26.87,South,169,3.6,3.6,84,0.00,,---,0.08,VWS V14.01,2013-05-06 15:06:00,
2013-05-06 10:08:00,53.4,48.4,26.87,SSE,166,2.7,2.7,83,0.00,,---,0.08,VWS V14.01,2013-05-06 15:08:00,
2013-05-06 10:09:00,53.4,48.4,26.87,SSE,166,2.7,2.7,83,0.00,,---,0.08,VWS V14.01,2013-05-06 15:09:00,
2013-05-06 10:11:00,53.4,48.4,26.87,South,175,4.0,4.0,83,0.00,,---,0.08,VWS V14.01,2013-05-06 15:11:00,
2013-05-06 10:14:00,53.4,46.4,26.84,South,175,4.0,4.0,77,0.00,,---,0.08,VWS V14.01,2013-05-06 15:14:00,
2013-05-06 10:17:00,53.6,46.6,26.84,SSE,164,0.0,0.0,77,0.00,,---,0.08,VWS V14.01,2013-05-06 15:17:00,
2013-05-06 10:19:00,53.6,46.6,26.84,South,177,2.7,2.7,77,0.00,,---,0.08,VWS V14.01,2013-05-06 15:19:00,
2013-05-06 10:22:00,54.5,47.1,26.84,SSW,204,2.7,2.7,76,0.00,,---,0.08,VWS V14.01,2013-05-06 15:22:00,
2013-05-06 10:24:00,55.6,47.8,26.87,SSW,204,2.7,2.7,75,0.00,,---,0.08,VWS V14.01,2013-05-06 15:24:00,
2013-05-06 10:27:00,56.1,48.7,26.87,SSE,165,3.1,3.1,76,0.00,,---,0.08,VWS V14.01,2013-05-06 15:27:00,
2013-05-06 10:29:00,56.7,48.1,26.87,South,182,5.4,5.4,73,0.00,,---,0.08,VWS V14.01,2013-05-06 15:29:00,
2013-05-06 10:32:00,56.5,47.2,26.87,SSE,154,3.1,3.1,71,0.00,,---,0.08,VWS V14.01,2013-05-06 15:32:00,
2013-05-06 10:34:00,56.5,47.2,26.87,SSE,154,3.1,3.1,71,0.00,,---,0.08,VWS V14.01,2013-05-06 15:34:00,
2013-05-06 10:35:00,56.5,47.2,26.87,SSE,154,3.1,3.1,71,0.00,,---,0.08,VWS V14.01,2013-05-06 15:35:00,
2013-05-06 10:37:00,56.5,47.2,26.87,SSE,163,4.9,4.9,71,0.00,,---,0.08,VWS V14.01,2013-05-06 15:37:00,
2013-05-06 10:39:00,54.5,39.6,26.87,SSE,163,4.0,4.0,57,0.00,,---,0.08,VWS V14.01,2013-05-06 15:39:00,
2013-05-06 10:40:00,54.5,39.6,26.87,SSE,163,4.0,4.0,57,0.00,,---,0.08,VWS V14.01,2013-05-06 15:40:00,
2013-05-06 10:42:00,54.3,39.0,26.84,SSE,163,4.0,4.0,56,0.00,,---,0.08,VWS V14.01,2013-05-06 15:42:00,
2013-05-06 10:44:00,54.0,39.1,26.84,South,188,2.7,2.7,57,0.00,,---,0.08,VWS V14.01,2013-05-06 15:44:00,
2013-05-06 10:45:00,54.0,39.1,26.84,South,188,2.7,2.7,57,0.00,,---,0.08,VWS V14.01,2013-05-06 15:45:00,
2013-05-06 10:47:00,53.4,38.1,26.84,SE,140,5.4,5.4,56,0.00,,---,0.08,VWS V14.01,2013-05-06 15:47:00,
2013-05-06 10:49:00,53.4,38.6,26.84,SSE,153,3.6,3.6,57,0.00,,---,0.08,VWS V14.01,2013-05-06 15:49:00,
2013-05-06 10:50:00,53.4,38.6,26.84,SSE,153,3.6,3.6,57,0.00,,---,0.08,VWS V14.01,2013-05-06 15:50:00,
2013-05-06 10:52:00,53.4,38.6,26.84,SSE,152,0.0,0.0,57,0.00,,---,0.08,VWS V14.01,2013-05-06 15:52:00,
2013-05-06 10:54:00,53.4,38.6,26.84,South,171,0.0,0.0,57,0.00,,---,0.08,VWS V14.01,2013-05-06 15:54:00,
2013-05-06 10:55:00,53.4,38.6,26.84,South,171,0.0,0.0,57,0.00,,---,0.08,VWS V14.01,2013-05-06 15:55:00,
2013-05-06 10:57:00,53.4,38.6,26.84,SSE,163,0.0,2.7,57,0.00,,---,0.08,VWS V14.01,2013-05-06 15:57:00,
2013-05-06 11:00:00,53.8,39.8,26.87,SSE,163,0.0,0.0,59,0.00,,---,0.08,VWS V14.01,2013-05-06 16:00:00,
2013-05-06 11:02:00,53.8,39.8,26.87,SSE,158,3.6,3.6,59,0.00,,---,0.08,VWS V14.01,2013-05-06 16:02:00,
2013-05-06 11:05:00,53.8,39.4,26.87,SSE,158,2.7,4.0,58,0.00,,---,0.08,VWS V14.01,2013-05-06 16:05:00,
2013-05-06 11:06:00,53.8,39.4,26.87,SSE,158,2.7,2.7,58,0.00,,---,0.08,VWS V14.01,2013-05-06 16:06:00,
2013-05-06 11:07:00,53.8,39.4,26.87,South,171,2.7,2.7,58,0.00,,---,0.08,VWS V14.01,2013-05-06 16:07:00,
2013-05-06 11:10:00,53.8,39.4,26.87,South,181,3.1,3.1,58,0.00,,---,0.08,VWS V14.01,2013-05-06 16:10:00,
2013-05-06 11:11:00,53.8,39.4,26.87,South,181,3.1,3.1,58,0.00,,---,0.08,VWS V14.01,2013-05-06 16:11:00,
2013-05-06 11:12:00,53.8,39.4,26.84,South,181,3.1,3.1,58,0.00,,---,0.08,VWS V14.01,2013-05-06 16:12:00,
2013-05-06 11:15:00,54.5,40.9,26.84,SSW,200,5.4,5.4,60,0.00,,---,0.08,VWS V14.01,2013-05-06 16:15:00,
2013-05-06 11:16:00,54.5,40.9,26.84,SSW,200,5.4,5.4,60,0.00,,---,0.08,VWS V14.01,2013-05-06 16:16:00,
2013-05-06 11:18:00,54.9,41.2,26.84,ESE,118,4.0,4.0,60,0.00,,---,0.08,VWS V14.01,2013-05-06 16:18:00,
2013-05-06 11:20:00,55.8,41.7,26.84,SSE,153,4.9,4.9,59,0.00,,---,0.08,VWS V14.01,2013-05-06 16:20:00,
2013-05-06 11:21:00,55.8,41.7,26.84,SE,124,2.7,4.9,59,0.00,,---,0.08,VWS V14.01,2013-05-06 16:21:00,
2013-05-06 11:23:00,55.9,41.4,26.84,SE,144,3.6,3.6,58,0.00,,---,0.08,VWS V14.01,2013-05-06 16:23:00,
2013-05-06 11:25:00,56.3,40.4,26.84,SSE,159,8.1,8.1,55,0.00,,---,0.08,VWS V14.01,2013-05-06 16:25:00,
2013-05-06 11:26:00,56.3,40.4,26.84,SSE,159,8.1,8.1,55,0.00,,---,0.08,VWS V14.01,2013-05-06 16:26:00,
2013-05-06 11:28:00,57.0,40.1,26.84,SSE,166,5.4,8.1,53,0.00,,---,0.08,VWS V14.01,2013-05-06 16:28:00,
2013-05-06 11:30:00,57.7,41.2,26.84,SE,140,3.1,5.4,54,0.00,,---,0.08,VWS V14.01,2013-05-06 16:30:00,
2013-05-06 11:31:00,57.7,41.2,26.84,SE,140,3.1,5.4,54,0.00,,---,0.08,VWS V14.01,2013-05-06 16:31:00,
2013-05-06 11:33:00,57.7,41.2,26.84,South,179,4.0,4.0,54,0.00,,---,0.08,VWS V14.01,2013-05-06 16:33:00,
2013-05-06 11:36:00,57.7,41.2,26.84,SSE,159,3.1,3.1,54,0.00,,---,0.08,VWS V14.01,2013-05-06 16:36:00,
2013-05-06 11:38:00,57.6,38.0,26.84,SSE,155,5.4,5.4,48,0.00,,---,0.08,VWS V14.01,2013-05-06 16:38:00,
2013-05-06 11:41:00,57.4,37.3,26.84,SSE,155,5.4,5.4,47,0.00,,---,0.08,VWS V14.01,2013-05-06 16:41:00,
2013-05-06 11:42:00,57.4,37.3,26.84,SSE,151,5.8,5.8,47,0.00,,---,0.08,VWS V14.01,2013-05-06 16:42:00,
2013-05-06 11:43:00,57.2,36.6,26.84,SE,146,4.9,4.9,46,0.00,,---,0.08,VWS V14.01,2013-05-06 16:43:00,
2013-05-06 11:46:00,57.2,36.6,26.84,South,173,8.1,8.1,46,0.00,,---,0.08,VWS V14.01,2013-05-06 16:46:00,
2013-05-06 11:47:00,57.2,36.6,26.84,South,173,8.1,8.1,46,0.00,,---,0.08,VWS V14.01,2013-05-06 16:47:00,
2013-05-06 11:48:00,56.5,36.5,26.84,South,173,8.1,8.1,47,0.00,,---,0.08,VWS V14.01,2013-05-06 16:48:00,
2013-05-06 11:51:00,56.5,36.5,26.84,South,175,6.3,6.3,47,0.00,,---,0.08,VWS V14.01,2013-05-06 16:51:00,
2013-05-06 11:52:00,56.5,36.5,26.84,South,175,6.3,6.3,47,0.00,,---,0.08,VWS V14.01,2013-05-06 16:52:00,
2013-05-06 11:54:00,56.5,36.5,26.87,ESE,119,4.0,4.0,47,0.00,,---,0.08,VWS V14.01,2013-05-06 16:54:00,
2013-05-06 11:56:00,55.6,36.7,26.87,ESE,119,4.0,4.0,49,0.00,,---,0.08,VWS V14.01,2013-05-06 16:56:00,
2013-05-06 11:57:00,55.6,36.7,26.87,ESE,119,4.0,4.0,49,0.00,,---,0.08,VWS V14.01,2013-05-06 16:57:00,
2013-05-06 11:59:00,55.2,35.4,26.87,WSW,247,8.1,8.1,47,0.00,,---,0.08,VWS V14.01,2013-05-06 16:59:00,
2013-05-06 12:01:00,55.2,35.4,26.87,WSW,247,8.1,8.1,47,0.00,,---,0.08,VWS V14.01,2013-05-06 17:01:00,
2013-05-06 12:02:00,55.2,35.4,26.87,WSW,247,8.1,8.1,47,0.00,,---,0.08,VWS V14.01,2013-05-06 17:02:00,
2013-05-06 12:04:00,55.2,35.4,26.87,WSW,243,3.6,3.6,47,0.00,,---,0.08,VWS V14.01,2013-05-06 17:04:00,
2013-05-06 12:06:00,55.0,37.3,26.87,WSW,243,3.6,3.6,51,0.00,,---,0.08,VWS V14.01,2013-05-06 17:06:00,
2013-05-06 12:07:00,55.0,37.3,26.87,WSW,243,3.6,3.6,51,0.00,,---,0.08,VWS V14.01,2013-05-06 17:07:00,
2013-05-06 12:08:00,55.0,37.3,26.87,WSW,243,3.6,3.6,51,0.00,,---,0.08,VWS V14.01,2013-05-06 17:08:00,
2013-05-06 12:09:00,55.2,37.4,26.87,SW,224,3.6,3.6,51,0.00,,---,0.08,VWS V14.01,2013-05-06 17:09:00,
2013-05-06 12:12:00,55.8,36.9,26.87,South,179,4.0,4.0,49,0.00,,---,0.08,VWS V14.01,2013-05-06 17:12:00,
2013-05-06 12:13:00,55.6,36.2,26.87,South,179,4.0,4.0,48,0.00,,---,0.08,VWS V14.01,2013-05-06 17:13:00,
2013-05-06 12:14:00,55.8,36.4,26.84,SE,128,5.4,5.4,48,0.00,,---,0.08,VWS V14.01,2013-05-06 17:14:00,
2013-05-06 12:17:00,55.8,36.4,26.84,SE,141,4.0,4.0,48,0.00,,---,0.08,VWS V14.01,2013-05-06 17:17:00,
2013-05-06 12:18:00,55.8,36.4,26.84,SE,141,4.0,4.0,48,0.00,,---,0.08,VWS V14.01,2013-05-06 17:18:00,
2013-05-06 12:19:00,55.8,36.4,26.84,SE,141,4.0,4.0,48,0.00,,---,0.08,VWS V14.01,2013-05-06 17:19:00,
2013-05-06 12:22:00,55.9,38.1,26.84,South,172,5.4,5.4,51,0.00,,---,0.08,VWS V14.01,2013-05-06 17:22:00,
2013-05-06 12:23:00,55.9,38.1,26.84,South,172,5.4,5.4,51,0.00,,---,0.08,VWS V14.01,2013-05-06 17:23:00,
2013-05-06 12:25:00,55.9,37.1,26.84,SSE,156,8.3,8.3,49,0.00,,---,0.08,VWS V14.01,2013-05-06 17:25:00,
2013-05-06 12:27:00,55.9,37.1,26.81,SSE,156,8.3,8.3,49,0.00,,---,0.08,VWS V14.01,2013-05-06 17:27:00,
2013-05-06 12:28:00,55.9,37.1,26.81,SSE,156,8.3,8.3,49,0.00,,---,0.08,VWS V14.01,2013-05-06 17:28:00,
2013-05-06 12:30:00,55.9,37.1,26.81,SSW,213,3.1,3.1,49,0.00,,---,0.08,VWS V14.01,2013-05-06 17:30:00,
2013-05-06 12:32:00,55.4,38.6,26.81,SSW,213,3.1,3.1,53,0.00,,---,0.08,VWS V14.01,2013-05-06 17:32:00,
2013-05-06 12:33:00,55.4,38.6,26.81,SSW,213,3.1,3.1,53,0.00,,---,0.08,VWS V14.01,2013-05-06 17:33:00,
2013-05-06 12:35:00,55.2,38.9,26.81,SSW,213,3.1,3.1,54,0.00,,---,0.08,VWS V14.01,2013-05-06 17:35:00,
2013-05-06 12:37:00,55.0,39.2,26.81,South,174,10.5,10.5,55,0.00,,---,0.08,VWS V14.01,2013-05-06 17:37:00,
2013-05-06 12:38:00,55.0,39.2,26.81,South,179,3.6,10.5,55,0.00,,---,0.08,VWS V14.01,2013-05-06 17:38:00,
2013-05-06 12:39:00,55.0,39.2,26.81,South,179,3.6,3.6,55,0.00,,---,0.08,VWS V14.01,2013-05-06 17:39:00,
2013-05-06 12:40:00,54.5,37.2,26.81,South,179,3.6,3.6,52,0.00,,---,0.08,VWS V14.01,2013-05-06 17:40:00,
2013-05-06 12:42:00,54.5,38.2,26.81,WNW,295,5.8,5.8,54,0.00,,---,0.08,VWS V14.01,2013-05-06 17:42:00,
2013-05-06 12:43:00,54.5,38.2,26.81,WNW,295,5.8,5.8,54,0.00,,---,0.08,VWS V14.01,2013-05-06 17:43:00,
2013-05-06 12:44:00,54.5,38.2,26.81,WNW,295,5.8,5.8,54,0.00,,---,0.08,VWS V14.01,2013-05-06 17:44:00,
2013-05-06 12:45:00,54.5,38.2,26.81,WNW,295,5.8,5.8,54,0.00,,---,0.08,VWS V14.01,2013-05-06 17:45:00,
2013-05-06 12:47:00,54.5,38.2,26.81,SW,232,4.0,4.0,54,0.00,,---,0.08,VWS V14.01,2013-05-06 17:47:00,
2013-05-06 12:48:00,54.5,40.5,26.81,SW,232,4.0,4.0,59,0.00,,---,0.08,VWS V14.01,2013-05-06 17:48:00,
2013-05-06 12:49:00,54.5,40.5,26.81,SE,139,4.0,4.0,59,0.00,,---,0.08,VWS V14.01,2013-05-06 17:49:00,
2013-05-06 12:50:00,54.5,40.9,26.81,SE,139,4.0,4.0,60,0.00,,---,0.08,VWS V14.01,2013-05-06 17:50:00,
2013-05-06 12:52:00,54.5,40.9,26.81,South,184,8.1,8.1,60,0.00,,---,0.08,VWS V14.01,2013-05-06 17:52:00,
2013-05-06 12:53:00,54.5,40.9,26.81,South,184,8.1,8.1,60,0.00,,---,0.08,VWS V14.01,2013-05-06 17:53:00,
2013-05-06 12:54:00,54.5,40.9,26.87,South,184,8.1,8.1,60,0.00,,---,0.08,VWS V14.01,2013-05-06 17:54:00,
2013-05-06 12:55:00,54.5,40.9,26.87,SSE,168,4.9,4.9,60,0.00,,---,0.08,VWS V14.01,2013-05-06 17:55:00,
2013-05-06 12:57:00,54.5,40.9,26.87,SSE,168,4.9,4.9,60,0.00,,---,0.08,VWS V14.01,2013-05-06 17:57:00,
2013-05-06 12:58:00,54.3,42.0,26.87,SSE,168,4.9,4.9,63,0.00,,---,0.08,VWS V14.01,2013-05-06 17:58:00,
2013-05-06 12:59:00,54.3,41.6,26.87,SSE,168,4.9,4.9,62,0.00,,---,0.08,VWS V14.01,2013-05-06 17:59:00,
2013-05-06 13:00:00,54.3,41.2,26.87,SSE,168,4.9,4.9,61,0.00,,---,0.08,VWS V14.01,2013-05-06 18:00:00,
2013-05-06 13:02:00,54.1,41.8,26.87,SE,133,3.6,3.6,63,0.00,,---,0.08,VWS V14.01,2013-05-06 18:02:00,
2013-05-06 13:03:00,54.1,41.8,26.87,SSE,151,2.7,2.7,63,0.00,,---,0.08,VWS V14.01,2013-05-06 18:03:00,
2013-05-06 13:04:00,54.1,41.8,26.87,SSE,151,2.7,2.7,63,0.00,,---,0.08,VWS V14.01,2013-05-06 18:04:00,
2013-05-06 13:05:00,54.1,42.7,26.87,SE,135,3.6,3.6,65,0.00,,---,0.08,VWS V14.01,2013-05-06 18:05:00,
2013-05-06 13:07:00,54.1,42.7,26.87,SE,135,3.6,3.6,65,0.00,,---,0.08,VWS V14.01,2013-05-06 18:07:00,
2013-05-06 13:08:00,54.1,42.7,26.87,SE,135,3.6,3.6,65,0.00,,---,0.08,VWS V14.01,2013-05-06 18:08:00,
2013-05-06 13:09:00,54.1,42.7,26.87,ESE,118,4.0,4.0,65,0.00,,---,0.08,VWS V14.01,2013-05-06 18:09:00,
2013-05-06 13:10:00,54.1,42.7,26.87,ESE,118,4.0,4.0,65,0.00,,---,0.08,VWS V14.01,2013-05-06 18:10:00,
2013-05-06 13:11:00,53.6,42.5,26.87,ESE,118,4.0,4.0,66,0.00,,---,0.08,VWS V14.01,2013-05-06 18:11:00,
2013-05-06 13:12:00,53.6,42.5,26.90,SSE,164,4.9,4.9,66,0.00,,---,0.08,VWS V14.01,2013-05-06 18:12:00,
2013-05-06 13:13:00,53.6,42.5,26.90,SSE,164,4.9,4.9,66,0.00,,---,0.08,VWS V14.01,2013-05-06 18:13:00,
2013-05-06 13:14:00,53.6,42.5,26.90,SSE,164,4.9,4.9,66,0.00,,---,0.08,VWS V14.01,2013-05-06 18:14:00,
2013-05-06 13:15:00,53.6,42.5,26.90,SSE,164,4.9,4.9,66,0.00,,---,0.08,VWS V14.01,2013-05-06 18:15:00,
2013-05-06 13:16:00,53.2,42.6,26.90,SSE,164,4.9,4.9,67,0.00,,---,0.08,VWS V14.01,2013-05-06 18:16:00,
2013-05-06 13:17:00,53.2,42.6,26.90,SSE,164,4.9,4.9,67,0.00,,---,0.08,VWS V14.01,2013-05-06 18:17:00,
2013-05-06 13:19:00,53.2,42.6,26.90,SE,126,3.1,3.1,67,0.00,,---,0.08,VWS V14.01,2013-05-06 18:19:00,
2013-05-06 13:20:00,53.2,42.6,26.90,SE,146,3.6,3.6,67,0.00,,---,0.08,VWS V14.01,2013-05-06 18:20:00,
2013-05-06 13:21:00,53.2,42.6,26.90,SE,134,2.7,3.6,67,0.00,,---,0.08,VWS V14.01,2013-05-06 18:21:00,
2013-05-06 13:23:00,53.1,43.2,26.90,SE,134,2.7,2.7,69,0.00,,---,0.08,VWS V14.01,2013-05-06 18:23:00,
2013-05-06 13:24:00,53.1,43.2,26.90,SE,134,2.7,2.7,69,0.00,,---,0.08,VWS V14.01,2013-05-06 18:24:00,
2013-05-06 13:25:00,53.1,43.5,26.90,SE,134,2.7,2.7,70,0.00,,---,0.08,VWS V14.01,2013-05-06 18:25:00,
2013-05-06 13:26:00,53.1,43.5,26.90,SE,134,2.7,2.7,70,0.00,,---,0.08,VWS V14.01,2013-05-06 18:26:00,
2013-05-06 13:28:00,53.1,43.5,26.90,SSE,164,2.7,2.7,70,0.00,,---,0.08,VWS V14.01,2013-05-06 18:28:00,
2013-05-06 13:29:00,53.1,43.5,26.90,South,186,4.0,4.0,70,0.00,,---,0.08,VWS V14.01,2013-05-06 18:29:00,
2013-05-06 13:30:00,53.1,43.5,26.90,South,186,4.0,4.0,70,0.00,,---,0.08,VWS V14.01,2013-05-06 18:30:00,
2013-05-06 13:31:00,53.1,43.5,26.90,South,182,2.7,2.7,70,0.00,,---,0.08,VWS V14.01,2013-05-06 18:31:00,
2013-05-06 13:33:00,53.1,43.5,26.90,South,182,2.7,2.7,70,0.00,,---,0.08,VWS V14.01,2013-05-06 18:33:00,
2013-05-06 13:34:00,53.1,43.5,26.90,South,182,2.7,2.7,70,0.00,,---,0.08,VWS V14.01,2013-05-06 18:34:00,
2013-05-06 13:35:00,53.1,43.5,26.90,South,182,2.7,2.7,70,0.00,,---,0.08,VWS V14.01,2013-05-06 18:35:00,
2013-05-06 13:36:00,53.1,43.5,26.90,SSE,152,4.0,4.0,70,0.00,,---,0.08,VWS V14.01,2013-05-06 18:36:00,
2013-05-06 13:38:00,53.1,43.5,26.87,South,171,5.8,5.8,70,0.00,,---,0.08,VWS V14.01,2013-05-06 18:38:00,
2013-05-06 13:39:00,53.1,43.5,26.87,South,171,5.8,5.8,70,0.00,,---,0.08,VWS V14.01,2013-05-06 18:39:00,
2013-05-06 13:40:00,53.1,43.5,26.87,South,171,5.8,5.8,70,0.00,,---,0.08,VWS V14.01,2013-05-06 18:40:00,
2013-05-06 13:42:00,52.5,43.8,26.87,SSE,166,3.6,5.8,72,0.00,,---,0.08,VWS V14.01,2013-05-06 18:42:00,
2013-05-06 13:43:00,52.5,43.8,26.87,SE,144,3.6,3.6,72,0.00,,---,0.08,VWS V14.01,2013-05-06 18:43:00,
2013-05-06 13:44:00,52.5,43.8,26.87,SE,144,3.6,3.6,72,0.00,,---,0.08,VWS V14.01,2013-05-06 18:44:00,
2013-05-06 13:45:00,52.5,43.8,26.87,SE,144,3.6,3.6,72,0.00,,---,0.08,VWS V14.01,2013-05-06 18:45:00,
2013-05-06 13:46:00,52.5,44.1,26.87,SE,144,3.6,3.6,73,0.00,,---,0.08,VWS V14.01,2013-05-06 18:46:00,
2013-05-06 13:47:00,52.5,44.1,26.87,SSE,168,2.2,3.6,73,0.00,,---,0.08,VWS V14.01,2013-05-06 18:47:00,
2013-05-06 13:49:00,52.5,44.1,26.87,South,174,3.1,3.1,73,0.00,,---,0.08,VWS V14.01,2013-05-06 18:49:00,
2013-05-06 13:50:00,52.5,44.1,26.87,South,174,3.1,3.1,73,0.00,,---,0.08,VWS V14.01,2013-05-06 18:50:00,
2013-05-06 13:51:00,52.5,44.1,26.87,SSE,160,4.0,4.0,73,0.00,,---,0.08,VWS V14.01,2013-05-06 18:51:00,
2013-05-06 13:52:00,52.5,44.1,26.87,SSE,160,4.0,4.0,73,0.00,,---,0.08,VWS V14.01,2013-05-06 18:52:00,
2013-05-06 13:54:00,52.5,44.1,26.87,South,179,0.0,0.0,73,0.00,,---,0.08,VWS V14.01,2013-05-06 18:54:00,
2013-05-06 13:55:00,52.5,44.1,26.87,South,190,4.0,4.0,73,0.00,,---,0.08,VWS V14.01,2013-05-06 18:55:00,
2013-05-06 13:56:00,52.5,44.1,26.87,ESE,114,3.6,3.6,73,0.00,,---,0.08,VWS V14.01,2013-05-06 18:56:00,
2013-05-06 13:57:00,52.5,44.1,26.87,ESE,114,3.6,3.6,73,0.00,,---,0.08,VWS V14.01,2013-05-06 18:57:00,
2013-05-06 13:59:00,52.5,44.1,26.87,South,186,4.0,4.0,73,0.00,,---,0.08,VWS V14.01,2013-05-06 18:59:00,
2013-05-06 14:00:00,53.1,44.7,26.87,South,186,4.0,4.0,73,0.00,,---,0.08,VWS V14.01,2013-05-06 19:00:00,
2013-05-06 14:01:00,53.1,44.7,26.87,South,186,4.0,4.0,73,0.00,,---,0.08,VWS V14.01,2013-05-06 19:01:00,
2013-05-06 14:02:00,53.1,44.7,26.87,South,175,6.3,6.3,73,0.00,,---,0.08,VWS V14.01,2013-05-06 19:02:00,
2013-05-06 14:04:00,53.1,44.7,26.87,South,173,4.0,4.0,73,0.00,,---,0.08,VWS V14.01,2013-05-06 19:04:00,
2013-05-06 14:05:00,53.1,44.7,26.87,South,173,4.0,4.0,73,0.00,,---,0.08,VWS V14.01,2013-05-06 19:05:00,
2013-05-06 14:06:00,53.1,44.7,26.87,South,173,4.0,4.0,73,0.00,,---,0.08,VWS V14.01,2013-05-06 19:06:00,
2013-05-06 14:08:00,53.4,45.0,26.84,South,173,4.0,4.0,73,0.00,,---,0.08,VWS V14.01,2013-05-06 19:08:00,
2013-05-06 14:10:00,53.4,45.0,26.84,ESE,104,3.6,3.6,73,0.00,,---,0.08,VWS V14.01,2013-05-06 19:10:00,
2013-05-06 14:11:00,53.4,45.0,26.84,SE,141,3.1,3.1,73,0.00,,---,0.08,VWS V14.01,2013-05-06 19:11:00,
2013-05-06 14:13:00,53.4,45.0,26.84,South,173,4.9,5.4,73,0.00,,---,0.08,VWS V14.01,2013-05-06 19:13:00,
2013-05-06 14:15:00,53.4,45.0,26.84,WSW,241,2.7,3.6,73,0.00,,---,0.08,VWS V14.01,2013-05-06 19:15:00,
2013-05-06 14:16:00,53.4,45.0,26.84,WSW,241,2.7,3.6,73,0.00,,---,0.08,VWS V14.01,2013-05-06 19:16:00,
2013-05-06 14:18:00,53.4,45.0,26.81,WSW,241,2.7,2.7,73,0.00,,---,0.08,VWS V14.01,2013-05-06 19:18:00,
2013-05-06 14:20:00,53.4,45.0,26.81,SSW,205,4.9,4.9,73,0.00,,---,0.08,VWS V14.01,2013-05-06 19:20:00,
2013-05-06 14:21:00,53.4,45.0,26.81,SSE,149,4.9,4.9,73,0.00,,---,0.08,VWS V14.01,2013-05-06 19:21:00,
2013-05-06 14:23:00,53.4,45.0,26.81,SSE,149,4.9,4.9,73,0.00,,---,0.08,VWS V14.01,2013-05-06 19:23:00,
2013-05-06 14:26:00,53.4,45.0,26.81,South,180,2.7,5.4,73,0.00,,---,0.08,VWS V14.01,2013-05-06 19:26:00,
2013-05-06 14:27:00,53.4,45.0,26.81,South,180,2.7,2.7,73,0.00,,---,0.08,VWS V14.01,2013-05-06 19:27:00,
2013-05-06 14:28:00,53.4,45.0,26.81,SSE,162,3.1,3.1,73,0.00,,---,0.08,VWS V14.01,2013-05-06 19:28:00,
2013-05-06 14:31:00,53.4,45.0,26.81,South,189,5.8,5.8,73,0.00,,---,0.08,VWS V14.01,2013-05-06 19:31:00,
2013-05-06 14:32:00,52.7,43.2,26.81,South,189,5.8,5.8,70,0.00,,---,0.08,VWS V14.01,2013-05-06 19:32:00,
2013-05-06 14:34:00,52.7,43.2,26.81,South,189,5.8,5.8,70,0.00,,---,0.08,VWS V14.01,2013-05-06 19:34:00,
2013-05-06 14:36:00,52.7,43.2,26.81,SE,138,3.1,3.1,70,0.00,,---,0.08,VWS V14.01,2013-05-06 19:36:00,
2013-05-06 14:37:00,52.7,43.6,26.81,SSW,209,2.2,2.2,71,0.00,,---,0.08,VWS V14.01,2013-05-06 19:37:00,
2013-05-06 14:39:00,52.7,43.6,26.81,SSW,196,2.7,2.7,71,0.00,,---,0.08,VWS V14.01,2013-05-06 19:39:00,
2013-05-06 14:41:00,52.7,43.6,26.81,SSW,196,2.7,2.7,71,0.00,,---,0.08,VWS V14.01,2013-05-06 19:41:00,
2013-05-06 14:43:00,52.7,43.6,26.81,South,179,3.6,3.6,71,0.00,,---,0.08,VWS V14.01,2013-05-06 19:43:00,
2013-05-06 14:44:00,52.7,43.6,26.81,South,179,3.6,3.6,71,0.00,,---,0.08,VWS V14.01,2013-05-06 19:44:00,
2013-05-06 14:46:00,52.7,43.6,26.81,South,175,2.2,2.7,71,0.00,,---,0.08,VWS V14.01,2013-05-06 19:46:00,
2013-05-06 14:48:00,52.7,43.6,26.81,SSE,167,3.1,3.1,71,0.00,,---,0.08,VWS V14.01,2013-05-06 19:48:00,
2013-05-06 14:49:00,52.7,43.6,26.81,SSE,167,3.1,3.1,71,0.00,,---,0.08,VWS V14.01,2013-05-06 19:49:00,
2013-05-06 14:51:00,53.1,44.7,26.81,South,175,0.0,3.1,73,0.00,,---,0.08,VWS V14.01,2013-05-06 19:51:00,
2013-05-06 14:52:00,53.1,44.7,26.87,South,175,0.0,0.0,73,0.00,,---,0.08,VWS V14.01,2013-05-06 19:52:00,
2013-05-06 14:53:00,53.1,44.7,26.87,South,175,0.0,0.0,73,0.00,,---,0.08,VWS V14.01,2013-05-06 19:53:00,
2013-05-06 14:54:00,53.1,44.7,26.90,South,175,0.0,0.0,73,0.00,,---,0.08,VWS V14.01,2013-05-06 19:54:00,
2013-05-06 14:56:00,53.2,44.8,26.90,South,174,4.0,4.0,73,0.00,,---,0.08,VWS V14.01,2013-05-06 19:56:00,
2013-05-06 14:57:00,53.2,44.8,26.90,South,174,4.0,4.0,73,0.00,,---,0.08,VWS V14.01,2013-05-06 19:57:00,
2013-05-06 14:58:00,53.2,44.8,26.90,South,174,4.0,4.0,73,0.00,,---,0.08,VWS V14.01,2013-05-06 19:58:00,
2013-05-06 14:59:00,53.4,44.6,26.90,SE,138,2.7,2.7,72,0.00,,---,0.08,VWS V14.01,2013-05-06 19:59:00,
2013-05-06 15:01:00,53.6,44.8,26.90,SE,138,2.7,2.7,72,0.00,,---,0.08,VWS V14.01,2013-05-06 20:01:00,
2013-05-06 15:02:00,53.6,44.8,26.90,South,181,5.8,5.8,72,0.00,,---,0.08,VWS V14.01,2013-05-06 20:02:00,
2013-05-06 15:03:00,53.6,44.8,26.90,South,181,5.8,5.8,72,0.00,,---,0.08,VWS V14.01,2013-05-06 20:03:00,
2013-05-06 15:04:00,53.6,44.8,26.90,South,188,3.1,3.1,72,0.00,,---,0.08,VWS V14.01,2013-05-06 20:04:00,
2013-05-06 15:06:00,53.8,44.6,26.90,South,188,3.1,3.1,71,0.00,,---,0.08,VWS V14.01,2013-05-06 20:06:00,
2013-05-06 15:07:00,53.8,44.6,26.90,South,179,6.7,6.7,71,0.00,,---,0.08,VWS V14.01,2013-05-06 20:07:00,
2013-05-06 15:09:00,53.8,44.6,26.90,South,173,3.6,6.7,71,0.00,,---,0.08,VWS V14.01,2013-05-06 20:09:00,
2013-05-06 15:10:00,53.8,44.6,26.90,South,173,3.6,3.6,71,0.00,,---,0.08,VWS V14.01,2013-05-06 20:10:00,
2013-05-06 15:11:00,53.8,44.6,26.90,SE,137,5.8,5.8,71,0.00,,---,0.08,VWS V14.01,2013-05-06 20:11:00,
2013-05-06 15:12:00,53.8,44.6,26.90,SE,137,5.8,5.8,71,0.00,,---,0.08,VWS V14.01,2013-05-06 20:12:00,
2013-05-06 15:14:00,53.8,44.6,26.90,South,172,5.8,5.8,71,0.00,,---,0.08,VWS V14.01,2013-05-06 20:14:00,
2013-05-06 15:15:00,53.8,44.6,26.90,South,172,5.8,5.8,71,0.00,,---,0.08,VWS V14.01,2013-05-06 20:15:00,
2013-05-06 15:16:00,54.3,42.4,26.90,South,172,5.8,5.8,64,0.00,,---,0.08,VWS V14.01,2013-05-06 20:16:00,
2013-05-06 15:17:00,54.3,42.4,26.84,South,172,5.8,5.8,64,0.00,,---,0.08,VWS V14.01,2013-05-06 20:17:00,
2013-05-06 15:19:00,54.3,42.4,26.84,South,172,5.4,5.4,64,0.00,,---,0.08,VWS V14.01,2013-05-06 20:19:00,
2013-05-06 15:20:00,54.5,41.8,26.84,South,172,5.4,5.4,62,0.00,,---,0.08,VWS V14.01,2013-05-06 20:20:00,
2013-05-06 15:21:00,54.5,41.8,26.84,South,172,5.4,5.4,62,0.00,,---,0.08,VWS V14.01,2013-05-06 20:21:00,
2013-05-06 15:22:00,54.5,41.8,26.84,South,172,5.4,5.4,62,0.00,,---,0.08,VWS V14.01,2013-05-06 20:22:00,
2013-05-06 15:24:00,54.5,41.8,26.84,South,172,5.4,5.4,62,0.00,,---,0.08,VWS V14.01,2013-05-06 20:24:00,
2013-05-06 15:25:00,55.2,42.4,26.84,South,172,5.4,5.4,62,0.00,,---,0.08,VWS V14.01,2013-05-06 20:25:00,
2013-05-06 15:26:00,55.2,42.4,26.84,South,172,5.4,5.4,62,0.00,,---,0.08,VWS V14.01,2013-05-06 20:26:00,
2013-05-06 15:27:00,55.2,42.0,26.84,South,172,5.4,5.4,61,0.00,,---,0.08,VWS V14.01,2013-05-06 20:27:00,
2013-05-06 15:30:00,55.2,42.0,26.84,SW,229,3.1,3.1,61,0.00,,---,0.08,VWS V14.01,2013-05-06 20:30:00,
2013-05-06 15:32:00,55.2,42.0,26.84,SSE,159,5.8,5.8,61,0.00,,---,0.08,VWS V14.01,2013-05-06 20:32:00,
2013-05-06 15:33:00,55.2,42.0,26.84,SSE,159,5.8,5.8,61,0.00,,---,0.08,VWS V14.01,2013-05-06 20:33:00,
2013-05-06 15:35:00,55.2,42.0,26.84,SSE,159,5.8,5.8,61,0.00,,---,0.08,VWS V14.01,2013-05-06 20:35:00,
2013-05-06 15:37:00,55.2,42.0,26.78,SSE,159,5.8,5.8,61,0.00,,---,0.08,VWS V14.01,2013-05-06 20:37:00,
2013-05-06 15:38:00,55.2,42.0,26.78,SSE,159,5.8,5.8,61,0.00,,---,0.08,VWS V14.01,2013-05-06 20:38:00,
2013-05-06 15:40:00,55.2,42.0,26.78,South,181,5.4,5.4,61,0.00,,---,0.08,VWS V14.01,2013-05-06 20:40:00,
2013-05-06 15:42:00,55.2,42.0,26.87,South,181,5.4,5.4,61,0.00,,---,0.08,VWS V14.01,2013-05-06 20:42:00,
2013-05-06 15:43:00,55.6,38.7,26.87,South,181,5.4,5.4,53,0.00,,---,0.08,VWS V14.01,2013-05-06 20:43:00,
2013-05-06 15:45:00,55.6,38.7,26.87,South,188,4.0,4.0,53,0.00,,---,0.08,VWS V14.01,2013-05-06 20:45:00,
2013-05-06 15:47:00,55.6,38.7,26.87,South,188,4.0,4.0,53,0.00,,---,0.08,VWS V14.01,2013-05-06 20:47:00,
2013-05-06 15:48:00,55.6,38.7,26.87,South,188,4.0,4.0,53,0.00,,---,0.08,VWS V14.01,2013-05-06 20:48:00,
2013-05-06 15:50:00,55.6,38.7,26.87,South,188,4.0,4.0,53,0.00,,---,0.08,VWS V14.01,2013-05-06 20:50:00,
2013-05-06 15:51:00,55.4,39.0,26.87,South,188,4.0,4.0,54,0.00,,---,0.08,VWS V14.01,2013-05-06 20:51:00,
2013-05-06 15:52:00,55.4,39.0,26.87,South,188,4.0,4.0,54,0.00,,---,0.08,VWS V14.01,2013-05-06 20:52:00,
2013-05-06 15:53:00,55.4,39.5,26.87,South,188,4.0,4.0,55,0.00,,---,0.08,VWS V14.01,2013-05-06 20:53:00,
2013-05-06 15:54:00,55.4,39.5,26.87,South,188,4.0,4.0,55,0.00,,---,0.08,VWS V14.01,2013-05-06 20:54:00,
2013-05-06 15:55:00,55.4,39.5,26.87,South,172,2.2,2.2,55,0.00,,---,0.08,VWS V14.01,2013-05-06 20:55:00,
2013-05-06 15:56:00,55.4,39.5,26.87,SE,128,2.7,2.7,55,0.00,,---,0.08,VWS V14.01,2013-05-06 20:56:00,
2013-05-06 15:57:00,55.4,39.5,26.87,SE,128,2.7,2.7,55,0.00,,---,0.08,VWS V14.01,2013-05-06 20:57:00,
2013-05-06 15:58:00,55.4,39.5,26.87,SSE,165,4.9,4.9,55,0.00,,---,0.08,VWS V14.01,2013-05-06 20:58:00,
2013-05-06 15:59:00,55.4,39.5,26.87,SSE,165,4.9,4.9,55,0.00,,---,0.08,VWS V14.01,2013-05-06 20:59:00,
2013-05-06 16:00:00,55.4,39.5,26.87,SSE,165,4.9,4.9,55,0.00,,---,0.08,VWS V14.01,2013-05-06 21:00:00,
2013-05-06 16:01:00,55.4,39.5,26.87,SSE,165,4.9,4.9,55,0.00,,---,0.08,VWS V14.01,2013-05-06 21:01:00,
2013-05-06 16:02:00,55.4,39.5,26.81,SSE,164,3.1,3.1,55,0.00,,---,0.08,VWS V14.01,2013-05-06 21:02:00,
2013-05-06 16:03:00,55.4,39.5,26.81,SSE,164,3.1,3.1,55,0.00,,---,0.08,VWS V14.01,2013-05-06 21:03:00,
2013-05-06 16:05:00,54.9,38.1,26.81,SSE,164,3.1,3.1,53,0.00,,---,0.08,VWS V14.01,2013-05-06 21:05:00,
2013-05-06 16:06:00,54.9,38.5,26.81,SSE,151,3.6,3.6,54,0.00,,---,0.08,VWS V14.01,2013-05-06 21:06:00,
2013-05-06 16:07:00,54.9,38.5,26.81,SSE,151,3.6,3.6,54,0.00,,---,0.08,VWS V14.01,2013-05-06 21:07:00,
2013-05-06 16:09:00,54.7,38.4,26.81,SSE,151,3.6,3.6,54,0.00,,---,0.08,VWS V14.01,2013-05-06 21:09:00,
2013-05-06 16:10:00,54.7,38.4,26.81,ESE,122,2.7,3.6,54,0.00,,---,0.08,VWS V14.01,2013-05-06 21:10:00,
2013-05-06 16:11:00,54.7,38.4,26.81,ESE,122,2.7,3.6,54,0.00,,---,0.08,VWS V14.01,2013-05-06 21:11:00,
2013-05-06 16:12:00,54.7,38.4,26.81,ESE,122,2.7,2.7,54,0.00,,---,0.08,VWS V14.01,2013-05-06 21:12:00,
2013-05-06 16:14:00,54.7,38.4,26.81,ESE,122,2.7,2.7,54,0.00,,---,0.08,VWS V14.01,2013-05-06 21:14:00,
2013-05-06 16:15:00,54.7,38.4,26.81,ESE,122,2.7,2.7,54,0.00,,---,0.08,VWS V14.01,2013-05-06 21:15:00,
2013-05-06 16:16:00,54.7,38.4,26.87,ESE,122,2.7,2.7,54,0.00,,---,0.08,VWS V14.01,2013-05-06 21:16:00,
2013-05-06 16:17:00,54.5,38.2,26.87,ESE,122,2.7,2.7,54,0.00,,---,0.08,VWS V14.01,2013-05-06 21:17:00,
2013-05-06 16:19:00,54.5,39.1,26.87,ESE,122,2.7,2.7,56,0.00,,---,0.08,VWS V14.01,2013-05-06 21:19:00,
2013-05-06 16:20:00,54.5,39.1,26.87,South,179,2.7,2.7,56,0.00,,---,0.08,VWS V14.01,2013-05-06 21:20:00,
2013-05-06 16:22:00,54.5,39.1,26.87,East,100,2.2,2.7,56,0.00,,---,0.08,VWS V14.01,2013-05-06 21:22:00,
2013-05-06 16:24:00,54.5,39.1,26.87,South,172,2.7,2.7,56,0.00,,---,0.08,VWS V14.01,2013-05-06 21:24:00,
2013-05-06 16:25:00,54.5,39.1,26.87,South,172,2.7,2.7,56,0.00,,---,0.08,VWS V14.01,2013-05-06 21:25:00,
2013-05-06 16:27:00,54.5,39.1,26.87,South,172,2.7,2.7,56,0.00,,---,0.08,VWS V14.01,2013-05-06 21:27:00,
2013-05-06 16:30:00,54.5,39.1,26.87,South,172,2.7,2.7,56,0.00,,---,0.08,VWS V14.01,2013-05-06 21:30:00,
2013-05-06 16:31:00,54.5,39.1,26.87,SSE,154,3.6,3.6,56,0.00,,---,0.08,VWS V14.01,2013-05-06 21:31:00,
2013-05-06 16:32:00,54.5,39.1,26.87,SSE,154,3.6,3.6,56,0.00,,---,0.08,VWS V14.01,2013-05-06 21:32:00,
2013-05-06 16:35:00,54.5,39.1,26.87,SSE,154,3.6,3.6,56,0.00,,---,0.08,VWS V14.01,2013-05-06 21:35:00,
2013-05-06 16:36:00,54.5,39.1,26.87,SSE,154,3.6,3.6,56,0.00,,---,0.08,VWS V14.01,2013-05-06 21:36:00,
2013-05-06 16:37:00,54.5,39.1,26.87,SSE,161,2.7,3.6,56,0.00,,---,0.08,VWS V14.01,2013-05-06 21:37:00,
2013-05-06 16:38:00,54.5,39.1,26.87,SSE,161,2.7,2.7,56,0.00,,---,0.08,VWS V14.01,2013-05-06 21:38:00,
2013-05-06 16:40:00,54.5,39.1,26.87,SSE,161,2.7,2.7,56,0.00,,---,0.08,VWS V14.01,2013-05-06 21:40:00,
2013-05-06 16:41:00,54.3,39.4,26.87,SSE,161,2.7,2.7,57,0.00,,---,0.08,VWS V14.01,2013-05-06 21:41:00,
2013-05-06 16:42:00,54.3,39.4,26.87,SSE,161,2.7,2.7,57,0.00,,---,0.08,VWS V14.01,2013-05-06 21:42:00,
2013-05-06 16:43:00,54.3,39.9,26.87,SSE,161,2.7,2.7,58,0.00,,---,0.08,VWS V14.01,2013-05-06 21:43:00,
2013-05-06 16:45:00,54.1,39.7,26.87,SSE,161,2.7,2.7,58,0.00,,---,0.08,VWS V14.01,2013-05-06 21:45:00,
2013-05-06 16:46:00,54.1,39.7,26.87,SE,144,2.7,2.7,58,0.00,,---,0.08,VWS V14.01,2013-05-06 21:46:00,
2013-05-06 16:47:00,54.1,39.7,26.87,SSE,149,2.2,2.7,58,0.00,,---,0.08,VWS V14.01,2013-05-06 21:47:00,
2013-05-06 16:48:00,54.1,39.7,26.87,SSE,149,2.2,2.2,58,0.00,,---,0.08,VWS V14.01,2013-05-06 21:48:00,
2013-05-06 16:50:00,54.1,39.7,26.87,SSE,149,2.2,2.2,58,0.00,,---,0.08,VWS V14.01,2013-05-06 21:50:00,
2013-05-06 16:51:00,54.1,39.7,26.87,SE,142,2.7,2.7,58,0.00,,---,0.08,VWS V14.01,2013-05-06 21:51:00,
2013-05-06 16:52:00,54.1,39.7,26.87,SE,142,2.7,2.7,58,0.00,,---,0.08,VWS V14.01,2013-05-06 21:52:00,
2013-05-06 16:53:00,54.0,40.4,26.87,SE,142,2.7,2.7,60,0.00,,---,0.08,VWS V14.01,2013-05-06 21:53:00,
2013-05-06 16:55:00,53.8,40.2,26.87,SE,142,2.7,2.7,60,0.00,,---,0.08,VWS V14.01,2013-05-06 21:55:00,
2013-05-06 16:56:00,53.8,40.2,26.84,South,174,2.7,2.7,60,0.00,,---,0.08,VWS V14.01,2013-05-06 21:56:00,
2013-05-06 16:57:00,53.8,40.2,26.84,South,183,3.6,3.6,60,0.00,,---,0.08,VWS V14.01,2013-05-06 21:57:00,
2013-05-06 16:58:00,53.8,40.2,26.84,South,183,3.6,3.6,60,0.00,,---,0.08,VWS V14.01,2013-05-06 21:58:00,
2013-05-06 17:00:00,53.8,40.7,26.84,South,183,3.6,3.6,61,0.00,,---,0.08,VWS V14.01,2013-05-06 22:00:00,
2013-05-06 17:01:00,53.8,40.7,26.84,South,183,3.6,3.6,61,0.00,,---,0.08,VWS V14.01,2013-05-06 22:01:00,
2013-05-06 17:02:00,53.8,40.7,26.84,South,183,3.6,3.6,61,0.00,,---,0.08,VWS V14.01,2013-05-06 22:02:00,
2013-05-06 17:03:00,53.8,40.7,26.84,South,183,3.6,3.6,61,0.00,,---,0.08,VWS V14.01,2013-05-06 22:03:00,
2013-05-06 17:05:00,53.8,40.7,26.84,SSW,200,2.2,2.2,61,0.00,,---,0.08,VWS V14.01,2013-05-06 22:05:00,
2013-05-06 17:07:00,53.8,40.7,26.84,SSW,200,2.2,2.2,61,0.00,,---,0.08,VWS V14.01,2013-05-06 22:07:00,
2013-05-06 17:08:00,53.8,40.7,26.84,South,189,3.1,3.1,61,0.00,,---,0.08,VWS V14.01,2013-05-06 22:08:00,
2013-05-06 17:10:00,53.4,40.3,26.84,South,169,0.0,0.0,61,0.00,,---,0.08,VWS V14.01,2013-05-06 22:10:00,
2013-05-06 17:12:00,53.4,40.3,26.84,South,169,2.2,2.2,61,0.00,,---,0.08,VWS V14.01,2013-05-06 22:12:00,
2013-05-06 17:13:00,53.4,40.3,26.84,South,187,2.2,2.2,61,0.00,,---,0.08,VWS V14.01,2013-05-06 22:13:00,
2013-05-06 17:15:00,53.4,40.3,26.84,South,187,2.2,2.2,61,0.00,,---,0.08,VWS V14.01,2013-05-06 22:15:00,
2013-05-06 17:17:00,53.2,40.2,26.84,South,187,2.2,2.2,61,0.00,,---,0.08,VWS V14.01,2013-05-06 22:17:00,
2013-05-06 17:18:00,53.2,40.2,26.84,SSE,160,4.9,4.9,61,0.00,,---,0.08,VWS V14.01,2013-05-06 22:18:00,
2013-05-06 17:20:00,53.2,40.2,26.84,SSE,160,4.9,4.9,61,0.00,,---,0.08,VWS V14.01,2013-05-06 22:20:00,
2013-05-06 17:22:00,53.2,40.2,26.84,SSE,164,0.0,4.9,61,0.00,,---,0.08,VWS V14.01,2013-05-06 22:22:00,
2013-05-06 17:23:00,53.2,40.2,26.84,SSE,164,0.0,0.0,61,0.00,,---,0.08,VWS V14.01,2013-05-06 22:23:00,
2013-05-06 17:24:00,53.2,40.2,26.84,SSE,164,0.0,0.0,61,0.00,,---,0.08,VWS V14.01,2013-05-06 22:24:00,
2013-05-06 17:26:00,52.9,40.2,26.84,SSE,164,0.0,0.0,62,0.00,,---,0.08,VWS V14.01,2013-05-06 22:26:00,
2013-05-06 17:27:00,52.9,40.2,26.84,SSE,164,0.0,0.0,62,0.00,,---,0.08,VWS V14.01,2013-05-06 22:27:00,
2013-05-06 17:28:00,52.9,40.2,26.84,SSE,164,0.0,0.0,62,0.00,,---,0.08,VWS V14.01,2013-05-06 22:28:00,
2013-05-06 17:29:00,52.9,40.6,26.84,SSE,164,0.0,0.0,63,0.00,,---,0.08,VWS V14.01,2013-05-06 22:29:00,
2013-05-06 17:31:00,52.9,40.6,26.84,SSE,160,0.0,0.0,63,0.00,,---,0.08,VWS V14.01,2013-05-06 22:31:00,
2013-05-06 17:33:00,52.9,40.6,26.84,SSE,160,0.0,0.0,63,0.00,,---,0.08,VWS V14.01,2013-05-06 22:33:00,
2013-05-06 17:34:00,52.9,41.0,26.81,SSE,160,0.0,0.0,64,0.00,,---,0.08,VWS V14.01,2013-05-06 22:34:00,
2013-05-06 17:36:00,52.9,41.0,26.81,SSE,160,0.0,0.0,64,0.00,,---,0.08,VWS V14.01,2013-05-06 22:36:00,
2013-05-06 17:38:00,52.9,41.0,26.81,SSE,160,0.0,0.0,64,0.00,,---,0.08,VWS V14.01,2013-05-06 22:38:00,
2013-05-06 17:39:00,52.9,41.5,26.81,South,178,2.2,2.2,65,0.00,,---,0.08,VWS V14.01,2013-05-06 22:39:00,
2013-05-06 17:40:00,52.9,41.5,26.81,South,178,2.2,2.2,65,0.00,,---,0.08,VWS V14.01,2013-05-06 22:40:00,
2013-05-06 17:41:00,52.9,41.5,26.81,SSE,160,2.7,2.7,65,0.00,,---,0.08,VWS V14.01,2013-05-06 22:41:00,
2013-05-06 17:43:00,52.9,41.5,26.81,South,186,2.7,2.7,65,0.00,,---,0.08,VWS V14.01,2013-05-06 22:43:00,
2013-05-06 17:44:00,52.9,41.5,26.81,South,186,0.0,0.0,65,0.00,,---,0.08,VWS V14.01,2013-05-06 22:44:00,
2013-05-06 17:45:00,52.9,41.5,26.81,South,186,0.0,0.0,65,0.00,,---,0.08,VWS V14.01,2013-05-06 22:45:00,
2013-05-06 17:46:00,52.7,41.7,26.81,South,186,0.0,0.0,66,0.00,,---,0.08,VWS V14.01,2013-05-06 22:46:00,
2013-05-06 17:48:00,52.7,41.7,26.81,SE,140,0.0,0.0,66,0.00,,---,0.08,VWS V14.01,2013-05-06 22:48:00,
2013-05-06 17:49:00,52.7,41.7,26.81,SE,140,0.0,0.0,66,0.00,,---,0.08,VWS V14.01,2013-05-06 22:49:00,
2013-05-06 17:50:00,52.7,41.7,26.81,SE,140,0.0,0.0,66,0.00,,---,0.08,VWS V14.01,2013-05-06 22:50:00,
2013-05-06 17:51:00,52.7,41.7,26.81,SE,140,0.0,0.0,66,0.00,,---,0.08,VWS V14.01,2013-05-06 22:51:00,
2013-05-06 17:53:00,52.7,41.7,26.81,SE,140,0.0,0.0,66,0.00,,---,0.08,VWS V14.01,2013-05-06 22:53:00,
2013-05-06 17:55:00,52.7,41.7,26.81,SE,140,0.0,0.0,66,0.00,,---,0.08,VWS V14.01,2013-05-06 22:55:00,
2013-05-06 17:56:00,52.7,42.1,26.81,SE,140,0.0,0.0,67,0.00,,---,0.08,VWS V14.01,2013-05-06 22:56:00,
2013-05-06 17:58:00,52.5,41.9,26.81,South,178,0.0,0.0,67,0.00,,---,0.08,VWS V14.01,2013-05-06 22:58:00,
2013-05-06 17:59:00,52.5,41.9,26.81,South,178,0.0,0.0,67,0.00,,---,0.08,VWS V14.01,2013-05-06 22:59:00,
2013-05-06 18:00:00,52.5,41.9,26.81,South,178,0.0,0.0,67,0.00,,---,0.08,VWS V14.01,2013-05-06 23:00:00,
2013-05-06 18:01:00,52.5,41.9,26.81,South,178,0.0,0.0,67,0.00,,---,0.08,VWS V14.01,2013-05-06 23:01:00,
2013-05-06 18:03:00,52.5,41.9,26.90,South,178,0.0,0.0,67,0.00,,---,0.08,VWS V14.01,2013-05-06 23:03:00,
2013-05-06 18:04:00,52.5,41.9,26.90,South,178,0.0,0.0,67,0.00,,---,0.08,VWS V14.01,2013-05-06 23:04:00,
2013-05-06 18:05:00,52.5,42.3,26.90,South,178,0.0,0.0,68,0.00,,---,0.08,VWS V14.01,2013-05-06 23:05:00,
2013-05-06 18:06:00,52.5,42.3,26.90,South,178,0.0,0.0,68,0.00,,---,0.08,VWS V14.01,2013-05-06 23:06:00,
2013-05-06 18:08:00,52.5,42.3,26.90,South,178,0.0,0.0,68,0.00,,---,0.08,VWS V14.01,2013-05-06 23:08:00,
2013-05-06 18:09:00,52.5,42.3,26.90,South,178,0.0,0.0,68,0.00,,---,0.08,VWS V14.01,2013-05-06 23:09:00,
2013-05-06 18:11:00,52.5,42.3,26.90,SE,126,2.2,2.2,68,0.00,,---,0.08,VWS V14.01,2013-05-06 23:11:00,
2013-05-06 18:14:00,52.5,42.7,26.90,SE,126,0.0,2.2,69,0.00,,---,0.08,VWS V14.01,2013-05-06 23:14:00,
2013-05-06 18:16:00,52.5,42.7,26.87,SE,126,0.0,0.0,69,0.00,,---,0.08,VWS V14.01,2013-05-06 23:16:00,
2013-05-06 18:19:00,52.5,42.7,26.87,SE,126,0.0,0.0,69,0.00,,---,0.08,VWS V14.01,2013-05-06 23:19:00,
2013-05-06 18:21:00,52.5,43.0,26.87,SE,126,0.0,0.0,70,0.00,,---,0.08,VWS V14.01,2013-05-06 23:21:00,
2013-05-06 18:24:00,52.3,42.9,26.87,SE,126,0.0,0.0,70,0.00,,---,0.08,VWS V14.01,2013-05-06 23:24:00,
2013-05-06 18:26:00,52.3,42.9,26.81,SE,126,0.0,0.0,70,0.00,,---,0.08,VWS V14.01,2013-05-06 23:26:00,
2013-05-06 18:27:00,52.5,43.0,26.81,SE,126,0.0,0.0,70,0.00,,---,0.08,VWS V14.01,2013-05-06 23:27:00,
2013-05-06 18:29:00,52.5,43.0,26.81,SE,126,0.0,0.0,70,0.00,,---,0.08,VWS V14.01,2013-05-06 23:29:00,
2013-05-06 18:31:00,52.5,43.0,26.81,SE,126,0.0,0.0,70,0.00,,---,0.08,VWS V14.01,2013-05-06 23:31:00,
2013-05-06 18:32:00,52.3,43.2,26.81,SE,126,0.0,0.0,71,0.00,,---,0.08,VWS V14.01,2013-05-06 23:32:00,
2013-05-06 18:34:00,52.3,43.2,26.81,SE,126,0.0,0.0,71,0.00,,---,0.08,VWS V14.01,2013-05-06 23:34:00,
2013-05-06 18:36:00,52.3,43.2,26.81,SE,126,0.0,0.0,71,0.00,,---,0.08,VWS V14.01,2013-05-06 23:36:00,
2013-05-06 18:37:00,52.3,43.2,26.81,SE,126,0.0,0.0,71,0.00,,---,0.08,VWS V14.01,2013-05-06 23:37:00,
2013-05-06 18:39:00,52.3,43.2,26.81,SE,126,0.0,0.0,71,0.00,,---,0.08,VWS V14.01,2013-05-06 23:39:00,
2013-05-06 18:41:00,52.3,43.2,26.81,SE,126,0.0,0.0,71,0.00,,---,0.08,VWS V14.01,2013-05-06 23:41:00,
2013-05-06 18:42:00,52.3,43.2,26.81,SE,126,0.0,0.0,71,0.00,,---,0.08,VWS V14.01,2013-05-06 23:42:00,
2013-05-06 18:44:00,52.3,43.2,26.84,SE,126,0.0,0.0,71,0.00,,---,0.08,VWS V14.01,2013-05-06 23:44:00,
2013-05-06 18:46:00,52.3,43.6,26.84,SE,126,0.0,0.0,72,0.00,,---,0.08,VWS V14.01,2013-05-06 23:46:00,
2013-05-06 18:47:00,52.3,43.6,26.84,SE,126,0.0,0.0,72,0.00,,---,0.08,VWS V14.01,2013-05-06 23:47:00,
2013-05-06 18:49:00,52.3,43.6,26.84,SE,126,0.0,0.0,72,0.00,,---,0.08,VWS V14.01,2013-05-06 23:49:00,
2013-05-06 18:51:00,52.3,43.6,26.84,SE,126,0.0,0.0,72,0.00,,---,0.08,VWS V14.01,2013-05-06 23:51:00,
2013-05-06 18:52:00,52.3,43.6,26.84,SE,126,0.0,0.0,72,0.00,,---,0.08,VWS V14.01,2013-05-06 23:52:00,
2013-05-06 18:55:00,52.3,43.6,26.84,SE,126,0.0,0.0,72,0.00,,---,0.08,VWS V14.01,2013-05-06 23:55:00,
2013-05-06 18:56:00,52.5,43.8,26.87,SE,126,0.0,0.0,72,0.00,,---,0.08,VWS V14.01,2013-05-06 23:56:00,
2013-05-06 18:57:00,52.5,43.8,26.87,SE,126,0.0,0.0,72,0.00,,---,0.08,VWS V14.01,2013-05-06 23:57:00,
2013-05-06 19:00:00,52.5,44.1,26.87,SE,126,0.0,0.0,73,0.00,,---,0.08,VWS V14.01,2013-05-07 00:00:00,
2013-05-06 19:01:00,52.5,44.1,26.87,SE,126,0.0,0.0,73,0.00,,---,0.08,VWS V14.01,2013-05-07 00:01:00,
2013-05-06 19:02:00,52.5,44.1,26.87,SE,126,0.0,0.0,73,0.00,,---,0.08,VWS V14.01,2013-05-07 00:02:00,
2013-05-06 19:05:00,52.7,44.3,26.87,SE,126,0.0,0.0,73,0.00,,---,0.08,VWS V14.01,2013-05-07 00:05:00,
2013-05-06 19:06:00,52.7,44.3,26.87,SE,126,0.0,0.0,73,0.00,,---,0.08,VWS V14.01,2013-05-07 00:06:00,
2013-05-06 19:07:00,52.7,44.3,26.87,SE,126,0.0,0.0,73,0.00,,---,0.08,VWS V14.01,2013-05-07 00:07:00,
2013-05-06 19:08:00,52.7,44.3,26.87,SE,126,0.0,0.0,73,0.00,,---,0.08,VWS V14.01,2013-05-07 00:08:00,
2013-05-06 19:10:00,52.7,44.3,26.87,SE,126,0.0,0.0,73,0.00,,---,0.08,VWS V14.01,2013-05-07 00:10:00,
2013-05-06 19:12:00,52.7,44.3,26.87,SE,126,0.0,0.0,73,0.00,,---,0.08,VWS V14.01,2013-05-07 00:12:00,
2013-05-06 19:13:00,52.7,44.3,26.87,SE,126,0.0,0.0,73,0.00,,---,0.08,VWS V14.01,2013-05-07 00:13:00,
2013-05-06 19:15:00,52.7,44.3,26.87,SE,126,0.0,0.0,73,0.00,,---,0.08,VWS V14.01,2013-05-07 00:15:00,
2013-05-06 19:17:00,52.7,44.3,26.87,SE,126,0.0,0.0,73,0.00,,---,0.08,VWS V14.01,2013-05-07 00:17:00,
2013-05-06 19:18:00,52.7,44.3,26.87,SE,126,0.0,0.0,73,0.00,,---,0.08,VWS V14.01,2013-05-07 00:18:00,
2013-05-06 19:20:00,52.7,44.3,26.87,SE,126,0.0,0.0,73,0.00,,---,0.08,VWS V14.01,2013-05-07 00:20:00,
2013-05-06 19:22:00,52.5,44.5,26.87,SE,126,0.0,0.0,74,0.00,,---,0.08,VWS V14.01,2013-05-07 00:22:00,
2013-05-06 19:23:00,52.5,44.5,26.87,SE,126,0.0,0.0,74,0.00,,---,0.08,VWS V14.01,2013-05-07 00:23:00,
2013-05-06 19:25:00,52.5,44.1,26.87,SE,126,0.0,0.0,73,0.00,,---,0.08,VWS V14.01,2013-05-07 00:25:00,
2013-05-06 19:27:00,52.3,44.0,26.87,SE,126,0.0,0.0,73,0.00,,---,0.08,VWS V14.01,2013-05-07 00:27:00,
2013-05-06 19:28:00,52.3,44.0,26.87,SE,126,0.0,0.0,73,0.00,,---,0.08,VWS V14.01,2013-05-07 00:28:00,
2013-05-06 19:30:00,52.3,44.3,26.87,SE,126,0.0,0.0,74,0.00,,---,0.08,VWS V14.01,2013-05-07 00:30:00,
2013-05-06 19:33:00,52.3,44.3,26.87,SE,126,0.0,0.0,74,0.00,,---,0.08,VWS V14.01,2013-05-07 00:33:00,
2013-05-06 19:35:00,52.3,44.3,26.90,SE,126,0.0,0.0,74,0.00,,---,0.08,VWS V14.01,2013-05-07 00:35:00,
2013-05-06 19:38:00,52.3,44.3,26.90,SE,126,0.0,0.0,74,0.00,,---,0.08,VWS V14.01,2013-05-07 00:38:00,
2013-05-06 19:40:00,52.3,44.3,26.90,SE,126,0.0,0.0,74,0.00,,---,0.08,VWS V14.01,2013-05-07 00:40:00,
2013-05-06 19:43:00,52.2,44.1,26.90,SE,126,0.0,0.0,74,0.00,,---,0.08,VWS V14.01,2013-05-07 00:43:00,
2013-05-06 19:44:00,52.2,44.1,26.90,SE,126,0.0,0.0,74,0.00,,---,0.08,VWS V14.01,2013-05-07 00:44:00,
2013-05-06 19:45:00,52.0,44.0,26.90,SE,126,0.0,0.0,74,0.00,,---,0.08,VWS V14.01,2013-05-07 00:45:00,
2013-05-06 19:48:00,51.8,43.8,26.87,SE,126,0.0,0.0,74,0.00,,---,0.08,VWS V14.01,2013-05-07 00:48:00,
2013-05-06 19:49:00,51.8,43.8,26.87,SE,126,0.0,0.0,74,0.00,,---,0.08,VWS V14.01,2013-05-07 00:49:00,
2013-05-06 19:51:00,51.8,43.8,26.87,SE,126,0.0,0.0,74,0.00,,---,0.08,VWS V14.01,2013-05-07 00:51:00,
2013-05-06 19:53:00,51.8,43.8,26.87,SE,126,0.0,0.0,74,0.00,,---,0.08,VWS V14.01,2013-05-07 00:53:00,
2013-05-06 19:54:00,51.8,43.8,26.87,SE,126,0.0,0.0,74,0.00,,---,0.08,VWS V14.01,2013-05-07 00:54:00,
2013-05-06 19:55:00,51.8,43.8,26.87,SE,126,0.0,0.0,74,0.00,,---,0.08,VWS V14.01,2013-05-07 00:55:00,
2013-05-06 19:57:00,51.8,44.1,26.87,SE,126,0.0,0.0,75,0.00,,---,0.08,VWS V14.01,2013-05-07 00:57:00,
2013-05-06 19:59:00,51.8,44.1,26.93,SE,126,0.0,0.0,75,0.00,,---,0.08,VWS V14.01,2013-05-07 00:59:00,
2013-05-06 20:00:00,51.8,44.1,26.93,SE,126,0.0,0.0,75,0.00,,---,0.08,VWS V14.01,2013-05-07 01:00:00,
2013-05-06 20:02:00,51.8,44.1,26.93,SE,126,0.0,0.0,75,0.00,,---,0.08,VWS V14.01,2013-05-07 01:02:00,
2013-05-06 20:04:00,51.6,44.0,26.93,SE,126,0.0,0.0,75,0.00,,---,0.08,VWS V14.01,2013-05-07 01:04:00,
2013-05-06 20:05:00,51.6,44.0,26.93,SE,126,0.0,0.0,75,0.00,,---,0.08,VWS V14.01,2013-05-07 01:05:00,
2013-05-06 20:07:00,51.6,44.0,26.93,SE,126,0.0,0.0,75,0.00,,---,0.08,VWS V14.01,2013-05-07 01:07:00,
2013-05-06 20:09:00,51.6,44.0,26.93,SE,126,0.0,0.0,75,0.00,,---,0.08,VWS V14.01,2013-05-07 01:09:00,
2013-05-06 20:10:00,51.6,44.0,26.93,SE,126,0.0,0.0,75,0.00,,---,0.08,VWS V14.01,2013-05-07 01:10:00,
2013-05-06 20:12:00,51.6,44.0,26.93,SE,126,0.0,0.0,75,0.00,,---,0.08,VWS V14.01,2013-05-07 01:12:00,
2013-05-06 20:14:00,51.6,44.0,26.93,SE,126,0.0,0.0,75,0.00,,---,0.08,VWS V14.01,2013-05-07 01:14:00,
2013-05-06 20:15:00,51.6,44.3,26.84,SE,126,0.0,0.0,76,0.00,,---,0.08,VWS V14.01,2013-05-07 01:15:00,
2013-05-06 20:18:00,51.6,44.3,26.84,SE,126,0.0,0.0,76,0.00,,---,0.08,VWS V14.01,2013-05-07 01:18:00,
2013-05-06 20:19:00,51.6,44.3,26.84,SE,126,0.0,0.0,76,0.00,,---,0.08,VWS V14.01,2013-05-07 01:19:00,
2013-05-06 20:20:00,51.6,44.3,26.84,SE,126,0.0,0.0,76,0.00,,---,0.08,VWS V14.01,2013-05-07 01:20:00,
2013-05-06 20:21:00,51.6,44.3,26.84,SE,126,0.0,0.0,76,0.00,,---,0.08,VWS V14.01,2013-05-07 01:21:00,
2013-05-06 20:23:00,51.6,44.3,26.84,SE,126,0.0,0.0,76,0.00,,---,0.08,VWS V14.01,2013-05-07 01:23:00,
2013-05-06 20:24:00,51.6,44.3,26.84,SE,126,0.0,0.0,76,0.00,,---,0.08,VWS V14.01,2013-05-07 01:24:00,
2013-05-06 20:25:00,51.4,44.1,26.84,SE,126,0.0,0.0,76,0.00,,---,0.08,VWS V14.01,2013-05-07 01:25:00,
2013-05-06 20:26:00,51.4,44.1,26.84,SE,126,0.0,0.0,76,0.00,,---,0.08,VWS V14.01,2013-05-07 01:26:00,
2013-05-06 20:28:00,51.4,44.1,26.84,SE,126,0.0,0.0,76,0.00,,---,0.08,VWS V14.01,2013-05-07 01:28:00,
2013-05-06 20:29:00,51.4,44.1,26.87,SE,126,0.0,0.0,76,0.00,,---,0.08,VWS V14.01,2013-05-07 01:29:00,
2013-05-06 20:30:00,51.4,44.1,26.87,SE,126,0.0,0.0,76,0.00,,---,0.08,VWS V14.01,2013-05-07 01:30:00,
2013-05-06 20:31:00,51.4,44.1,26.87,SE,126,0.0,0.0,76,0.00,,---,0.08,VWS V14.01,2013-05-07 01:31:00,
2013-05-06 20:33:00,51.4,44.1,26.87,SE,126,0.0,0.0,76,0.00,,---,0.08,VWS V14.01,2013-05-07 01:33:00,
2013-05-06 20:34:00,51.4,44.1,26.87,SE,126,0.0,0.0,76,0.00,,---,0.08,VWS V14.01,2013-05-07 01:34:00,
2013-05-06 20:35:00,51.4,44.1,26.87,SE,126,0.0,0.0,76,0.00,,---,0.08,VWS V14.01,2013-05-07 01:35:00,
2013-05-06 20:36:00,51.4,44.1,26.87,SE,126,0.0,0.0,76,0.00,,---,0.08,VWS V14.01,2013-05-07 01:36:00,
2013-05-06 20:38:00,51.4,44.5,26.87,SE,126,0.0,0.0,77,0.00,,---,0.08,VWS V14.01,2013-05-07 01:38:00,
2013-05-06 20:39:00,51.4,44.5,26.87,SE,126,0.0,0.0,77,0.00,,---,0.08,VWS V14.01,2013-05-07 01:39:00,
2013-05-06 20:41:00,51.4,44.5,26.87,SE,126,0.0,0.0,77,0.00,,---,0.08,VWS V14.01,2013-05-07 01:41:00,
2013-05-06 20:43:00,51.4,44.5,26.93,SE,126,0.0,0.0,77,0.00,,---,0.08,VWS V14.01,2013-05-07 01:43:00,
2013-05-06 20:44:00,51.4,44.5,26.93,SE,126,0.0,0.0,77,0.00,,---,0.08,VWS V14.01,2013-05-07 01:44:00,
2013-05-06 20:46:00,51.4,44.5,26.93,SE,126,0.0,0.0,77,0.00,,---,0.08,VWS V14.01,2013-05-07 01:46:00,
2013-05-06 20:48:00,51.3,44.3,26.93,SE,126,0.0,0.0,77,0.00,,---,0.08,VWS V14.01,2013-05-07 01:48:00,
2013-05-06 20:49:00,51.3,44.3,26.93,SE,126,0.0,0.0,77,0.00,,---,0.08,VWS V14.01,2013-05-07 01:49:00,
2013-05-06 20:51:00,51.3,44.3,26.93,SE,126,0.0,0.0,77,0.00,,---,0.08,VWS V14.01,2013-05-07 01:51:00,
2013-05-06 20:53:00,51.4,44.8,26.93,SE,126,0.0,0.0,78,0.00,,---,0.08,VWS V14.01,2013-05-07 01:53:00,
2013-05-06 20:54:00,51.6,45.3,26.93,SE,126,0.0,0.0,79,0.00,,---,0.08,VWS V14.01,2013-05-07 01:54:00,
2013-05-06 20:56:00,51.8,45.8,26.93,SE,126,0.0,0.0,80,0.00,,---,0.08,VWS V14.01,2013-05-07 01:56:00,
2013-05-06 20:57:00,52.0,46.0,26.93,SE,126,0.0,0.0,80,0.00,,---,0.08,VWS V14.01,2013-05-07 01:57:00,
2013-05-06 20:59:00,52.2,46.5,26.93,SE,126,0.0,0.0,81,0.00,,---,0.08,VWS V14.01,2013-05-07 01:59:00,
2013-05-06 21:00:00,52.2,46.5,26.93,SE,126,0.0,0.0,81,0.00,,---,0.08,VWS V14.01,2013-05-07 02:00:00,
2013-05-06 21:01:00,52.3,46.7,26.93,SE,126,0.0,0.0,81,0.00,,---,0.08,VWS V14.01,2013-05-07 02:01:00,
2013-05-06 21:02:00,52.3,46.7,26.93,SE,126,0.0,0.0,81,0.00,,---,0.08,VWS V14.01,2013-05-07 02:02:00,
2013-05-06 21:04:00,52.2,46.5,26.93,SE,126,0.0,0.0,81,0.00,,---,0.08,VWS V14.01,2013-05-07 02:04:00,
2013-05-06 21:05:00,52.0,46.0,26.93,SE,126,0.0,0.0,80,0.00,,---,0.08,VWS V14.01,2013-05-07 02:05:00,
2013-05-06 21:06:00,51.8,45.5,26.93,SE,126,0.0,0.0,79,0.00,,---,0.08,VWS V14.01,2013-05-07 02:06:00,
2013-05-06 21:07:00,51.8,45.5,26.93,SE,126,0.0,0.0,79,0.00,,---,0.08,VWS V14.01,2013-05-07 02:07:00,
2013-05-06 21:09:00,51.6,45.7,26.93,SE,126,0.0,0.0,80,0.00,,---,0.08,VWS V14.01,2013-05-07 02:09:00,
2013-05-06 21:10:00,51.4,45.5,26.93,SE,126,0.0,0.0,80,0.00,,---,0.08,VWS V14.01,2013-05-07 02:10:00,
2013-05-06 21:11:00,51.4,45.5,26.93,SE,126,0.0,0.0,80,0.00,,---,0.08,VWS V14.01,2013-05-07 02:11:00,
2013-05-06 21:12:00,51.4,45.5,26.93,SE,126,0.0,0.0,80,0.00,,---,0.08,VWS V14.01,2013-05-07 02:12:00,
2013-05-06 21:13:00,51.3,45.0,26.93,SE,126,0.0,0.0,79,0.00,,---,0.08,VWS V14.01,2013-05-07 02:13:00,
2013-05-06 21:14:00,51.3,45.0,26.93,SE,126,0.0,0.0,79,0.00,,---,0.08,VWS V14.01,2013-05-07 02:14:00,
2013-05-06 21:15:00,51.1,45.1,26.93,SE,126,0.0,0.0,80,0.00,,---,0.08,VWS V14.01,2013-05-07 02:15:00,
2013-05-06 21:16:00,51.1,45.1,26.93,SE,126,0.0,0.0,80,0.00,,---,0.08,VWS V14.01,2013-05-07 02:16:00,
2013-05-06 21:17:00,51.1,45.1,26.93,SE,126,0.0,0.0,80,0.00,,---,0.08,VWS V14.01,2013-05-07 02:17:00,
2013-05-06 21:18:00,51.1,45.1,26.93,SE,126,0.0,0.0,80,0.00,,---,0.08,VWS V14.01,2013-05-07 02:18:00,
2013-05-06 21:19:00,51.1,45.1,26.93,SE,126,0.0,0.0,80,0.00,,---,0.08,VWS V14.01,2013-05-07 02:19:00,
2013-05-06 21:20:00,51.1,45.5,26.93,SE,126,0.0,0.0,81,0.00,,---,0.08,VWS V14.01,2013-05-07 02:20:00,
2013-05-06 21:21:00,51.4,46.1,26.93,SE,126,0.0,0.0,82,0.00,,---,0.08,VWS V14.01,2013-05-07 02:21:00,
2013-05-06 21:22:00,51.4,46.1,26.93,SE,126,0.0,0.0,82,0.00,,---,0.08,VWS V14.01,2013-05-07 02:22:00,
2013-05-06 21:23:00,51.6,46.6,26.93,SE,126,0.0,0.0,83,0.00,,---,0.08,VWS V14.01,2013-05-07 02:23:00,
2013-05-06 21:25:00,51.6,46.6,26.93,SE,126,0.0,0.0,83,0.00,,---,0.08,VWS V14.01,2013-05-07 02:25:00,
2013-05-06 21:26:00,51.6,46.6,26.93,SE,126,0.0,0.0,83,0.00,,---,0.08,VWS V14.01,2013-05-07 02:26:00,
2013-05-06 21:28:00,51.6,46.6,26.93,SE,126,0.0,0.0,83,0.00,,---,0.08,VWS V14.01,2013-05-07 02:28:00,
2013-05-06 21:30:00,51.4,46.5,26.93,SE,126,0.0,0.0,83,0.00,,---,0.08,VWS V14.01,2013-05-07 02:30:00,
2013-05-06 21:31:00,51.4,46.1,26.93,SE,126,0.0,0.0,82,0.00,,---,0.08,VWS V14.01,2013-05-07 02:31:00,
2013-05-06 21:33:00,51.3,46.0,26.93,SE,126,0.0,0.0,82,0.00,,---,0.08,VWS V14.01,2013-05-07 02:33:00,
2013-05-06 21:35:00,51.3,46.0,26.93,SE,126,0.0,0.0,82,0.00,,---,0.08,VWS V14.01,2013-05-07 02:35:00,
2013-05-06 21:36:00,51.3,46.3,26.93,SE,126,0.0,0.0,83,0.00,,---,0.08,VWS V14.01,2013-05-07 02:36:00,
2013-05-06 21:38:00,51.3,46.3,26.93,SE,126,0.0,0.0,83,0.00,,---,0.08,VWS V14.01,2013-05-07 02:38:00,
2013-05-06 21:40:00,51.1,46.1,26.93,SE,126,0.0,0.0,83,0.00,,---,0.08,VWS V14.01,2013-05-07 02:40:00,
2013-05-06 21:41:00,51.1,46.1,26.93,SE,126,0.0,0.0,83,0.00,,---,0.08,VWS V14.01,2013-05-07 02:41:00,
2013-05-06 21:43:00,50.9,45.9,26.93,SE,126,0.0,0.0,83,0.00,,---,0.08,VWS V14.01,2013-05-07 02:43:00,
2013-05-06 21:45:00,50.9,45.9,26.93,SE,126,0.0,0.0,83,0.00,,---,0.08,VWS V14.01,2013-05-07 02:45:00,
2013-05-06 21:47:00,50.9,45.9,26.93,SE,126,0.0,0.0,83,0.00,,---,0.08,VWS V14.01,2013-05-07 02:47:00,
2013-05-06 21:48:00,50.9,45.9,26.90,SE,126,0.0,0.0,83,0.00,,---,0.08,VWS V14.01,2013-05-07 02:48:00,
2013-05-06 21:49:00,50.9,45.9,26.90,SE,126,0.0,0.0,83,0.00,,---,0.08,VWS V14.01,2013-05-07 02:49:00,
2013-05-06 21:50:00,50.9,45.9,26.90,SE,126,0.0,0.0,83,0.00,,---,0.08,VWS V14.01,2013-05-07 02:50:00,
2013-05-06 21:52:00,50.7,45.8,26.90,SE,126,0.0,0.0,83,0.00,,---,0.08,VWS V14.01,2013-05-07 02:52:00,
2013-05-06 21:53:00,50.7,45.8,26.90,SE,126,0.0,0.0,83,0.00,,---,0.08,VWS V14.01,2013-05-07 02:53:00,
2013-05-06 21:54:00,50.7,45.8,26.90,SE,126,0.0,0.0,83,0.00,,---,0.08,VWS V14.01,2013-05-07 02:54:00,
2013-05-06 21:55:00,50.7,45.8,26.90,SE,126,0.0,0.0,83,0.00,,---,0.08,VWS V14.01,2013-05-07 02:55:00,
2013-05-06 21:57:00,50.5,45.6,26.90,SE,126,0.0,0.0,83,0.00,,---,0.08,VWS V14.01,2013-05-07 02:57:00,
2013-05-06 21:58:00,50.5,45.6,26.90,SE,126,0.0,0.0,83,0.00,,---,0.08,VWS V14.01,2013-05-07 02:58:00,
2013-05-06 21:59:00,50.5,45.6,26.90,SE,126,0.0,0.0,83,0.00,,---,0.08,VWS V14.01,2013-05-07 02:59:00,
2013-05-06 22:00:00,50.5,45.6,26.90,SE,126,0.0,0.0,83,0.00,,---,0.08,VWS V14.01,2013-05-07 03:00:00,
2013-05-06 22:02:00,50.5,45.6,26.93,SE,126,0.0,0.0,83,0.00,,---,0.08,VWS V14.01,2013-05-07 03:02:00,
2013-05-06 22:04:00,50.4,45.4,26.93,SE,126,0.0,0.0,83,0.00,,---,0.08,VWS V14.01,2013-05-07 03:04:00,
2013-05-06 22:05:00,50.4,45.4,26.93,SE,126,0.0,0.0,83,0.00,,---,0.08,VWS V14.01,2013-05-07 03:05:00,
2013-05-06 22:07:00,50.4,45.4,26.93,SE,126,0.0,0.0,83,0.00,,---,0.08,VWS V14.01,2013-05-07 03:07:00,
2013-05-06 22:09:00,50.4,45.4,26.93,SE,126,0.0,0.0,83,0.00,,---,0.08,VWS V14.01,2013-05-07 03:09:00,
2013-05-06 22:10:00,50.4,45.7,26.93,SE,126,0.0,0.0,84,0.00,,---,0.08,VWS V14.01,2013-05-07 03:10:00,
2013-05-06 22:11:00,50.4,45.7,26.93,SE,126,0.0,0.0,84,0.00,,---,0.08,VWS V14.01,2013-05-07 03:11:00,
2013-05-06 22:12:00,50.4,45.7,26.93,SE,126,0.0,0.0,84,0.00,,---,0.08,VWS V14.01,2013-05-07 03:12:00,
2013-05-06 22:14:00,50.4,45.7,26.93,SE,126,0.0,0.0,84,0.00,,---,0.08,VWS V14.01,2013-05-07 03:14:00,
2013-05-06 22:15:00,50.4,45.7,26.93,SE,126,0.0,0.0,84,0.00,,---,0.08,VWS V14.01,2013-05-07 03:15:00,
2013-05-06 22:16:00,50.2,45.5,26.93,SE,126,0.0,0.0,84,0.00,,---,0.08,VWS V14.01,2013-05-07 03:16:00,
2013-05-06 22:17:00,50.2,45.5,26.93,SE,126,0.0,0.0,84,0.00,,---,0.08,VWS V14.01,2013-05-07 03:17:00,
2013-05-06 22:19:00,50.2,45.5,26.93,SE,126,0.0,0.0,84,0.00,,---,0.08,VWS V14.01,2013-05-07 03:19:00,
2013-05-06 22:21:00,50.2,45.5,26.93,SE,126,0.0,0.0,84,0.00,,---,0.08,VWS V14.01,2013-05-07 03:21:00,
2013-05-06 22:22:00,50.2,45.5,26.93,SE,126,0.0,0.0,84,0.00,,---,0.08,VWS V14.01,2013-05-07 03:22:00,
2013-05-06 22:24:00,50.2,45.5,26.93,SE,126,0.0,0.0,84,0.00,,---,0.08,VWS V14.01,2013-05-07 03:24:00,
2013-05-06 22:26:00,50.2,45.5,26.93,SE,126,0.0,0.0,84,0.00,,---,0.08,VWS V14.01,2013-05-07 03:26:00,
2013-05-06 22:27:00,50.2,45.5,26.93,SE,126,0.0,0.0,84,0.00,,---,0.08,VWS V14.01,2013-05-07 03:27:00,
2013-05-06 22:29:00,50.2,45.5,26.93,SE,126,0.0,0.0,84,0.00,,---,0.08,VWS V14.01,2013-05-07 03:29:00,
2013-05-06 22:30:00,50.2,45.5,26.93,SE,126,0.0,0.0,84,0.00,,---,0.08,VWS V14.01,2013-05-07 03:30:00,
2013-05-06 22:31:00,50.2,45.5,26.93,SE,126,0.0,0.0,84,0.00,,---,0.08,VWS V14.01,2013-05-07 03:31:00,
2013-05-06 22:33:00,50.2,45.5,26.93,SE,126,0.0,0.0,84,0.00,,---,0.08,VWS V14.01,2013-05-07 03:33:00,
2013-05-06 22:34:00,50.2,45.5,26.93,SE,126,0.0,0.0,84,0.00,,---,0.08,VWS V14.01,2013-05-07 03:34:00,
2013-05-06 22:35:00,50.2,45.5,26.93,SE,126,0.0,0.0,84,0.00,,---,0.08,VWS V14.01,2013-05-07 03:35:00,
2013-05-06 22:36:00,50.2,45.5,26.93,SE,126,0.0,0.0,84,0.00,,---,0.08,VWS V14.01,2013-05-07 03:36:00,
2013-05-06 22:38:00,50.2,45.5,26.93,SE,126,0.0,0.0,84,0.00,,---,0.08,VWS V14.01,2013-05-07 03:38:00,
2013-05-06 22:39:00,50.2,45.5,26.93,SE,126,0.0,0.0,84,0.00,,---,0.08,VWS V14.01,2013-05-07 03:39:00,
2013-05-06 22:40:00,50.2,45.5,26.93,SE,126,0.0,0.0,84,0.00,,---,0.08,VWS V14.01,2013-05-07 03:40:00,
2013-05-06 22:41:00,50.2,45.5,26.93,SE,126,0.0,0.0,84,0.00,,---,0.08,VWS V14.01,2013-05-07 03:41:00,
2013-05-06 22:43:00,50.2,45.5,26.93,SE,126,0.0,0.0,84,0.00,,---,0.08,VWS V14.01,2013-05-07 03:43:00,
2013-05-06 22:44:00,50.2,45.5,26.93,SE,126,0.0,0.0,84,0.00,,---,0.08,VWS V14.01,2013-05-07 03:44:00,
2013-05-06 22:45:00,50.2,45.5,26.93,SE,126,0.0,0.0,84,0.00,,---,0.08,VWS V14.01,2013-05-07 03:45:00,
2013-05-06 22:46:00,50.2,45.5,26.93,SE,126,0.0,0.0,84,0.00,,---,0.08,VWS V14.01,2013-05-07 03:46:00,
2013-05-06 22:47:00,50.2,45.5,26.93,SE,126,0.0,0.0,84,0.00,,---,0.08,VWS V14.01,2013-05-07 03:47:00,
2013-05-06 22:48:00,50.2,45.5,26.93,SE,126,0.0,0.0,84,0.00,,---,0.08,VWS V14.01,2013-05-07 03:48:00,
2013-05-06 22:49:00,50.2,45.8,26.93,SE,126,0.0,0.0,85,0.00,,---,0.08,VWS V14.01,2013-05-07 03:49:00,
2013-05-06 22:50:00,50.2,45.8,26.93,SE,126,0.0,0.0,85,0.00,,---,0.08,VWS V14.01,2013-05-07 03:50:00,
2013-05-06 22:51:00,50.2,45.8,26.93,SE,126,0.0,0.0,85,0.00,,---,0.08,VWS V14.01,2013-05-07 03:51:00,
2013-05-06 22:52:00,50.2,45.8,26.93,SE,126,0.0,0.0,85,0.00,,---,0.08,VWS V14.01,2013-05-07 03:52:00,
2013-05-06 22:53:00,50.2,45.8,26.93,SE,126,0.0,0.0,85,0.00,,---,0.08,VWS V14.01,2013-05-07 03:53:00,
2013-05-06 22:54:00,50.2,45.8,26.93,SE,126,0.0,0.0,85,0.00,,---,0.08,VWS V14.01,2013-05-07 03:54:00,
2013-05-06 22:55:00,50.2,45.8,26.87,SE,126,0.0,0.0,85,0.00,,---,0.08,VWS V14.01,2013-05-07 03:55:00,
2013-05-06 22:56:00,50.2,45.8,26.87,SE,126,0.0,0.0,85,0.00,,---,0.08,VWS V14.01,2013-05-07 03:56:00,
2013-05-06 22:58:00,50.2,45.8,26.87,NW,306,0.0,0.0,85,0.00,,---,0.08,VWS V14.01,2013-05-07 03:58:00,
2013-05-06 23:00:00,50.2,45.8,26.87,NW,315,2.2,2.2,85,0.00,,---,0.08,VWS V14.01,2013-05-07 04:00:00,
2013-05-06 23:01:00,50.2,45.8,26.87,NW,315,2.2,2.2,85,0.00,,---,0.00,VWS V14.01,2013-05-07 04:01:00,
2013-05-06 23:02:00,50.2,45.8,26.87,WNW,301,3.1,3.1,85,0.00,,---,0.00,VWS V14.01,2013-05-07 04:02:00,
2013-05-06 23:03:00,50.2,46.2,26.87,NW,315,2.2,3.1,86,0.00,,---,0.00,VWS V14.01,2013-05-07 04:03:00,
2013-05-06 23:04:00,50.2,46.2,26.87,NW,315,2.2,2.2,86,0.00,,---,0.00,VWS V14.01,2013-05-07 04:04:00,
2013-05-06 23:05:00,50.2,46.2,26.87,NW,316,2.7,2.7,86,0.00,,---,0.00,VWS V14.01,2013-05-07 04:05:00,
2013-05-06 23:06:00,50.2,46.2,26.87,NW,316,2.7,2.7,86,0.00,,---,0.00,VWS V14.01,2013-05-07 04:06:00,
2013-05-06 23:07:00,50.2,46.2,26.87,NW,315,0.0,2.7,86,0.00,,---,0.00,VWS V14.01,2013-05-07 04:07:00,
2013-05-06 23:08:00,50.2,46.2,26.87,NW,315,0.0,0.0,86,0.00,,---,0.00,VWS V14.01,2013-05-07 04:08:00,
2013-05-06 23:09:00,50.2,46.2,26.87,NW,315,0.0,0.0,86,0.00,,---,0.00,VWS V14.01,2013-05-07 04:09:00,
2013-05-06 23:10:00,50.2,46.2,26.87,NW,315,0.0,0.0,86,0.00,,---,0.00,VWS V14.01,2013-05-07 04:10:00,
2013-05-06 23:11:00,50.2,46.2,26.87,NW,315,0.0,0.0,86,0.00,,---,0.00,VWS V14.01,2013-05-07 04:11:00,
2013-05-06 23:12:00,50.2,46.2,26.87,NW,315,0.0,0.0,86,0.00,,---,0.00,VWS V14.01,2013-05-07 04:12:00,
2013-05-06 23:13:00,50.2,46.2,26.87,NW,315,0.0,0.0,86,0.00,,---,0.00,VWS V14.01,2013-05-07 04:13:00,
2013-05-06 23:14:00,50.2,46.5,26.87,NW,315,0.0,0.0,87,0.00,,---,0.00,VWS V14.01,2013-05-07 04:14:00,
2013-05-06 23:15:00,50.2,46.5,26.87,NW,315,0.0,0.0,87,0.00,,---,0.00,VWS V14.01,2013-05-07 04:15:00,
2013-05-06 23:16:00,50.2,46.5,26.87,NW,315,0.0,0.0,87,0.00,,---,0.00,VWS V14.01,2013-05-07 04:16:00,
2013-05-06 23:17:00,50.2,46.5,26.87,NW,315,0.0,0.0,87,0.00,,---,0.00,VWS V14.01,2013-05-07 04:17:00,
2013-05-06 23:18:00,50.4,46.6,26.87,NW,316,0.0,0.0,87,0.00,,---,0.00,VWS V14.01,2013-05-07 04:18:00,
2013-05-06 23:19:00,50.4,46.6,26.87,NW,315,0.0,0.0,87,0.00,,---,0.00,VWS V14.01,2013-05-07 04:19:00,
2013-05-06 23:20:00,50.4,46.6,26.87,NW,315,0.0,0.0,87,0.00,,---,0.00,VWS V14.01,2013-05-07 04:20:00,
2013-05-06 23:21:00,50.4,46.6,26.87,NW,315,0.0,0.0,87,0.00,,---,0.00,VWS V14.01,2013-05-07 04:21:00,
2013-05-06 23:22:00,50.4,46.6,26.87,NW,315,0.0,0.0,87,0.00,,---,0.00,VWS V14.01,2013-05-07 04:22:00,
2013-05-06 23:23:00,50.4,46.6,26.87,NW,313,2.7,2.7,87,0.00,,---,0.00,VWS V14.01,2013-05-07 04:23:00,
2013-05-06 23:24:00,50.4,47.0,26.87,NW,313,2.7,2.7,88,0.00,,---,0.00,VWS V14.01,2013-05-07 04:24:00,
2013-05-06 23:25:00,50.4,47.0,26.87,NW,313,2.7,2.7,88,0.00,,---,0.00,VWS V14.01,2013-05-07 04:25:00,
2013-05-06 23:26:00,50.4,47.0,26.87,NW,313,2.7,2.7,88,0.00,,---,0.00,VWS V14.01,2013-05-07 04:26:00,
2013-05-06 23:27:00,50.4,47.0,26.87,NW,313,2.7,2.7,88,0.00,,---,0.00,VWS V14.01,2013-05-07 04:27:00,
2013-05-06 23:28:00,50.4,47.0,26.87,NNW,334,2.7,2.7,88,0.00,,---,0.00,VWS V14.01,2013-05-07 04:28:00,
2013-05-06 23:29:00,50.4,47.0,26.87,NNW,334,2.7,2.7,88,0.00,,---,0.00,VWS V14.01,2013-05-07 04:29:00,
2013-05-06 23:30:00,50.4,47.0,26.87,NNW,346,2.2,2.7,88,0.00,,---,0.00,VWS V14.01,2013-05-07 04:30:00,
2013-05-06 23:31:00,50.4,47.0,26.87,NNW,346,2.2,2.2,88,0.00,,---,0.00,VWS V14.01,2013-05-07 04:31:00,
2013-05-06 23:32:00,50.4,47.0,26.87,NW,304,0.0,2.2,88,0.00,,---,0.00,VWS V14.01,2013-05-07 04:32:00,
2013-05-06 23:33:00,50.4,47.0,26.87,NW,304,0.0,0.0,88,0.00,,---,0.00,VWS V14.01,2013-05-07 04:33:00,
2013-05-06 23:34:00,50.4,47.0,26.87,NW,304,0.0,0.0,88,0.04,,---,0.04,VWS V14.01,2013-05-07 04:34:00,
2013-05-06 23:35:00,50.4,47.0,26.87,NNW,334,2.7,2.7,88,0.04,,---,0.04,VWS V14.01,2013-05-07 04:35:00,
2013-05-06 23:36:00,50.4,47.0,26.87,NNW,334,0.0,2.7,88,0.04,,---,0.04,VWS V14.01,2013-05-07 04:36:00,
2013-05-06 23:37:00,50.4,47.0,26.87,NNW,334,0.0,2.7,88,0.04,,---,0.04,VWS V14.01,2013-05-07 04:37:00,
2013-05-06 23:38:00,50.4,47.0,26.87,NNW,334,0.0,0.0,88,0.04,,---,0.04,VWS V14.01,2013-05-07 04:38:00,
2013-05-06 23:39:00,50.4,47.0,26.87,NNW,334,0.0,0.0,88,0.04,,---,0.04,VWS V14.01,2013-05-07 04:39:00,
2013-05-06 23:40:00,50.4,47.0,26.87,NW,319,0.0,0.0,88,0.04,,---,0.04,VWS V14.01,2013-05-07 04:40:00,
2013-05-06 23:41:00,50.4,47.2,26.87,NW,320,2.7,2.7,89,0.04,,---,0.04,VWS V14.01,2013-05-07 04:41:00,
2013-05-06 23:42:00,50.4,47.2,26.87,NW,320,2.7,2.7,89,0.04,,---,0.04,VWS V14.01,2013-05-07 04:42:00,
2013-05-06 23:43:00,50.4,47.2,26.87,NW,320,3.1,3.1,89,0.04,,---,0.04,VWS V14.01,2013-05-07 04:43:00,
2013-05-06 23:44:00,50.4,47.2,26.87,NW,320,3.1,3.1,89,0.04,,---,0.04,VWS V14.01,2013-05-07 04:44:00,
2013-05-06 23:45:00,50.4,47.2,26.87,NW,317,3.1,3.1,89,0.04,,---,0.04,VWS V14.01,2013-05-07 04:45:00,
2013-05-06 23:46:00,50.2,47.1,26.87,NW,317,3.1,3.1,89,0.04,,---,0.04,VWS V14.01,2013-05-07 04:46:00,
2013-05-06 23:47:00,50.2,47.1,26.87,NW,317,3.1,3.1,89,0.04,,---,0.04,VWS V14.01,2013-05-07 04:47:00,
2013-05-06 23:48:00,50.2,47.1,26.90,NW,317,3.1,3.1,89,0.04,,---,0.04,VWS V14.01,2013-05-07 04:48:00,
2013-05-06 23:49:00,50.2,47.1,26.90,NW,317,3.1,3.1,89,0.04,,---,0.04,VWS V14.01,2013-05-07 04:49:00,
2013-05-06 23:50:00,50.2,47.1,26.90,NW,320,0.0,3.1,89,0.04,,---,0.04,VWS V14.01,2013-05-07 04:50:00,
2013-05-06 23:51:00,50.2,47.1,26.90,NW,315,2.7,2.7,89,0.04,,---,0.04,VWS V14.01,2013-05-07 04:51:00,
2013-05-06 23:52:00,50.2,47.1,26.90,NW,315,2.7,2.7,89,0.04,,---,0.04,VWS V14.01,2013-05-07 04:52:00,
2013-05-06 23:53:00,50.2,47.1,26.90,NW,315,2.7,2.7,89,0.04,,---,0.04,VWS V14.01,2013-05-07 04:53:00,
2013-05-06 23:54:00,50.2,47.1,26.90,NW,313,2.7,2.7,89,0.04,,---,0.04,VWS V14.01,2013-05-07 04:54:00,
2013-05-06 23:55:00,50.2,47.1,26.90,NW,313,2.7,2.7,89,0.04,,---,0.04,VWS V14.01,2013-05-07 04:55:00,
2013-05-06 23:56:00,50.2,47.1,26.90,NW,313,0.0,2.7,89,0.04,,---,0.04,VWS V14.01,2013-05-07 04:56:00,
2013-05-06 23:57:00,50.2,47.1,26.90,NW,313,0.0,0.0,89,0.04,,---,0.04,VWS V14.01,2013-05-07 04:57:00,
2013-05-06 23:58:00,50.2,47.1,26.90,NW,313,0.0,0.0,89,0.04,,---,0.04,VWS V14.01,2013-05-07 04:58:00,
2013-05-06 23:59:00,50.2,47.4,26.90,NW,313,0.0,0.0,90,0.04,,---,0.04,VWS V14.01,2013-05-07 04:59:00,